IBE289 LEBL-MMMX

Flight info

Callsign IBE289
Flight time 12h 32m
Altitude 32000
Route NATPI DCT EVNAM/N0489F340 DCT AGN DCT SECHE DCT UVELI DCT CNA DCT MANAK UT183 MOKOR/N0485F360 UT183 BAGAD DCT AMPOP DCT LULOX/M085F360 DCT ELSOX DCT DINIM/M085F370 DCT 51N020W 50N030W 4830N04000W 47N050W DCT PORTI/N0484F380 N190A TUSKY Q475 COPLY Q75 BOS/N0487F400 Q75 GSO DCT SPA DCT LGC DCT MGM DCT SJI Q56 HRV DCT TBD M345 AXEXO UM345 PAZ UT154 ENAGA ENAGA3A
Aircraft A359/H-SDE2E3GHIJ3J4J5LM1ORWXY/LB1D1

Departure

Time 2026-05-07 06:41
Airport Josep Tarradellas Barcelona-El Prat Airport (LEBL)

Arrival

Time 2026-05-07 19:14
Airport Mexico City Benito Juárez International Airport (MMMX)
Time Latitude Longitude Altitude Speed Heading
2026-05-07 06:01 41.29115 2.08269 23 ft 0 kts 334°
2026-05-07 06:25 41.29103 2.08277 23 ft 3 kts 334°
2026-05-07 06:26 41.29083 2.08290 25 ft 3 kts 333°
2026-05-07 06:26 41.29064 2.08304 27 ft 3 kts 336°
2026-05-07 06:26 41.29042 2.08308 28 ft 3 kts 20°
2026-05-07 06:26 41.29024 2.08293 27 ft 3 kts 56°
2026-05-07 06:27 41.29022 2.08290 27 ft 0 kts 61°
2026-05-07 06:29 41.29022 2.08291 27 ft 1 kts 61°
2026-05-07 06:29 41.29029 2.08308 27 ft 3 kts 62°
2026-05-07 06:30 41.29044 2.08343 24 ft 5 kts 61°
2026-05-07 06:30 41.29072 2.08380 23 ft 6 kts 35°
2026-05-07 06:30 41.29115 2.08408 22 ft 8 kts 21°
2026-05-07 06:30 41.29177 2.08438 21 ft 11 kts 20°
2026-05-07 06:31 41.29260 2.08445 19 ft 13 kts 341°
2026-05-07 06:31 41.29343 2.08391 19 ft 13 kts 335°
2026-05-07 06:31 41.29399 2.08359 21 ft 13 kts 336°
2026-05-07 06:31 41.29482 2.08312 21 ft 13 kts 337°
2026-05-07 06:32 41.29595 2.08244 22 ft 13 kts 335°
2026-05-07 06:32 41.29646 2.08248 25 ft 10 kts 36°
2026-05-07 06:32 41.29699 2.08369 22 ft 13 kts 65°
2026-05-07 06:32 41.29735 2.08476 27 ft 12 kts 66°
2026-05-07 06:33 41.29759 2.08545 28 ft 12 kts 65°
2026-05-07 06:33 41.29811 2.08693 29 ft 14 kts 65°
2026-05-07 06:33 41.29840 2.08777 29 ft 15 kts 65°
2026-05-07 06:33 41.29882 2.08902 28 ft 16 kts 66°
2026-05-07 06:34 41.29932 2.09053 22 ft 19 kts 66°
2026-05-07 06:34 41.29990 2.09221 21 ft 21 kts 65°
2026-05-07 06:34 41.30055 2.09407 18 ft 23 kts 65°
2026-05-07 06:34 41.30120 2.09594 23 ft 22 kts 65°
2026-05-07 06:35 41.30180 2.09778 25 ft 21 kts 66°
2026-05-07 06:35 41.30241 2.09953 27 ft 21 kts 65°
2026-05-07 06:35 41.30304 2.10136 30 ft 22 kts 65°
2026-05-07 06:35 41.30361 2.10301 29 ft 16 kts 65°
2026-05-07 06:36 41.30389 2.10385 27 ft 7 kts 52°
2026-05-07 06:36 41.30414 2.10384 23 ft 5 kts 348°
2026-05-07 06:36 41.30424 2.10379 22 ft 0 kts 337°
2026-05-07 06:39 41.30427 2.10377 24 ft 2 kts 337°
2026-05-07 06:39 41.30450 2.10364 22 ft 5 kts 337°
2026-05-07 06:39 41.30487 2.10343 22 ft 7 kts 335°
2026-05-07 06:39 41.30530 2.10313 22 ft 7 kts 321°
2026-05-07 06:40 41.30533 2.10258 22 ft 7 kts 253°
2026-05-07 06:40 41.30524 2.10226 22 ft 0 kts 245°
2026-05-07 06:40 41.30478 2.10088 29 ft 49 kts 245°
2026-05-07 06:40 41.30230 2.09361 27 ft 121 kts 245°
2026-05-07 06:41 41.29783 2.08093 106 ft 175 kts 245°
2026-05-07 06:41 41.29237 2.06598 694 ft 187 kts 247°
2026-05-07 06:41 41.28665 2.04931 1320 ft 209 kts 246°
2026-05-07 06:41 41.28045 2.03098 1613 ft 229 kts 245°
2026-05-07 06:42 41.27344 2.01098 1911 ft 248 kts 244°
2026-05-07 06:42 41.26584 1.98975 2374 ft 259 kts 244°
2026-05-07 06:42 41.25805 1.96797 2995 ft 261 kts 244°
2026-05-07 06:42 41.25024 1.94632 3727 ft 259 kts 244°
2026-05-07 06:43 41.24243 1.92473 4391 ft 260 kts 244°
2026-05-07 06:43 41.23532 1.90254 5022 ft 262 kts 253°
2026-05-07 06:43 41.23140 1.87880 5664 ft 263 kts 260°
2026-05-07 06:43 41.22847 1.85480 6331 ft 265 kts 261°
2026-05-07 06:44 41.22561 1.83051 6944 ft 267 kts 261°
2026-05-07 06:44 41.22273 1.80613 7538 ft 269 kts 261°
2026-05-07 06:44 41.21981 1.78151 8147 ft 271 kts 261°
2026-05-07 06:44 41.21762 1.75655 8738 ft 274 kts 269°
2026-05-07 06:45 41.22116 1.73173 9325 ft 277 kts 293°
2026-05-07 06:45 41.23257 1.71123 9933 ft 281 kts 319°
2026-05-07 06:45 41.25002 1.69904 10324 ft 293 kts 343°
2026-05-07 06:45 41.27065 1.69449 10579 ft 309 kts 352°
2026-05-07 06:46 41.29251 1.69158 10835 ft 323 kts 353°
2026-05-07 06:46 41.31534 1.68861 11098 ft 336 kts 353°
2026-05-07 06:46 41.33902 1.68537 11356 ft 349 kts 353°
2026-05-07 06:46 41.36354 1.68180 11605 ft 361 kts 352°
2026-05-07 06:47 41.38889 1.67802 11871 ft 371 kts 352°
2026-05-07 06:47 41.41475 1.67407 12266 ft 377 kts 352°
2026-05-07 06:47 41.44097 1.67003 12701 ft 381 kts 352°
2026-05-07 06:47 41.46746 1.66591 13137 ft 385 kts 352°
2026-05-07 06:48 41.49412 1.66177 13583 ft 388 kts 352°
2026-05-07 06:48 41.52113 1.65757 13989 ft 392 kts 352°
2026-05-07 06:48 41.54830 1.65334 14427 ft 394 kts 352°
2026-05-07 06:48 41.57521 1.64914 14860 ft 396 kts 352°
2026-05-07 06:49 41.60263 1.64486 15285 ft 398 kts 352°
2026-05-07 06:49 41.63026 1.64053 15707 ft 400 kts 352°
2026-05-07 06:49 41.65800 1.63618 16155 ft 402 kts 352°
2026-05-07 06:49 41.68590 1.63181 16595 ft 405 kts 352°
2026-05-07 06:50 41.71393 1.62741 17018 ft 407 kts 352°
2026-05-07 06:50 41.74223 1.62295 17433 ft 410 kts 352°
2026-05-07 06:50 41.77062 1.61848 17853 ft 412 kts 352°
2026-05-07 06:50 41.79920 1.61398 18252 ft 415 kts 352°
2026-05-07 06:51 41.82796 1.60944 18600 ft 417 kts 352°
2026-05-07 06:51 41.85687 1.60488 18931 ft 420 kts 352°
2026-05-07 06:51 41.88601 1.60029 19275 ft 422 kts 351°
2026-05-07 06:51 41.91528 1.59565 19621 ft 425 kts 351°
2026-05-07 06:52 41.94462 1.59005 19945 ft 426 kts 346°
2026-05-07 06:52 41.97251 1.57731 20277 ft 424 kts 331°
2026-05-07 06:52 41.99686 1.55539 20619 ft 422 kts 319°
2026-05-07 06:52 42.01916 1.52964 20968 ft 423 kts 316°
2026-05-07 06:53 42.04122 1.50327 21302 ft 425 kts 316°
2026-05-07 06:53 42.06332 1.47682 21642 ft 427 kts 316°
2026-05-07 06:53 42.08559 1.45028 21997 ft 428 kts 316°
2026-05-07 06:53 42.10768 1.42404 22310 ft 430 kts 316°
2026-05-07 06:54 42.13038 1.39756 22604 ft 433 kts 319°
2026-05-07 06:54 42.15547 1.37482 22935 ft 439 kts 329°
2026-05-07 06:54 42.18401 1.35944 23256 ft 445 kts 342°
2026-05-07 06:54 42.21444 1.35092 23607 ft 449 kts 347°
2026-05-07 06:55 42.24536 1.34403 23871 ft 451 kts 348°
2026-05-07 06:55 42.27643 1.33729 24124 ft 453 kts 348°
2026-05-07 06:55 42.30767 1.33042 24399 ft 455 kts 348°
2026-05-07 06:55 42.33894 1.32344 24638 ft 457 kts 347°
2026-05-07 06:56 42.37037 1.31636 24943 ft 459 kts 347°
2026-05-07 06:56 42.40193 1.30923 25214 ft 460 kts 347°
2026-05-07 06:56 42.43360 1.30206 25474 ft 462 kts 347°
2026-05-07 06:56 42.46540 1.29483 25733 ft 464 kts 347°
2026-05-07 06:57 42.49723 1.28759 26008 ft 465 kts 347°
2026-05-07 06:57 42.52926 1.28030 26291 ft 467 kts 347°
2026-05-07 06:57 42.56141 1.27297 26556 ft 469 kts 347°
2026-05-07 06:57 42.59326 1.26569 26837 ft 471 kts 347°
2026-05-07 06:58 42.62561 1.25830 27153 ft 473 kts 347°
2026-05-07 06:58 42.65817 1.25085 27440 ft 475 kts 347°
2026-05-07 06:58 42.69079 1.24339 27746 ft 477 kts 347°
2026-05-07 06:58 42.72360 1.23600 28065 ft 479 kts 348°
2026-05-07 06:59 42.75675 1.22992 28341 ft 482 kts 350°
2026-05-07 06:59 42.79018 1.22508 28591 ft 485 kts 351°
2026-05-07 06:59 42.82389 1.22080 28859 ft 487 kts 351°
2026-05-07 06:59 42.85765 1.21664 29131 ft 489 kts 351°
2026-05-07 07:00 42.89159 1.21240 29405 ft 491 kts 351°
2026-05-07 07:00 42.92563 1.20796 29678 ft 493 kts 351°
2026-05-07 07:00 42.95982 1.20339 29967 ft 495 kts 351°
2026-05-07 07:00 42.99416 1.19872 30216 ft 497 kts 351°
2026-05-07 07:01 43.02861 1.19398 30444 ft 498 kts 351°
2026-05-07 07:01 43.06315 1.18919 30694 ft 500 kts 351°
2026-05-07 07:01 43.09781 1.18438 30980 ft 500 kts 351°
2026-05-07 07:01 43.13232 1.17960 31342 ft 499 kts 350°
2026-05-07 07:02 43.16685 1.17480 31712 ft 498 kts 350°
2026-05-07 07:02 43.20131 1.17002 32041 ft 497 kts 350°
2026-05-07 07:02 43.23563 1.16526 32369 ft 496 kts 350°
2026-05-07 07:02 43.26999 1.16049 32703 ft 495 kts 350°
2026-05-07 07:03 43.30425 1.15572 33040 ft 494 kts 350°
2026-05-07 07:03 43.33846 1.15096 33396 ft 493 kts 349°
2026-05-07 07:03 43.37253 1.14620 33738 ft 492 kts 349°
2026-05-07 07:03 43.40619 1.14150 34090 ft 491 kts 349°
2026-05-07 07:04 43.44060 1.13669 34379 ft 490 kts 349°
2026-05-07 07:04 43.47451 1.13193 34636 ft 490 kts 349°
2026-05-07 07:04 43.50848 1.12716 34889 ft 490 kts 349°
2026-05-07 07:04 43.54195 1.12240 35139 ft 489 kts 348°
2026-05-07 07:05 43.57536 1.11474 35381 ft 485 kts 342°
2026-05-07 07:05 43.60761 1.10196 35621 ft 480 kts 335°
2026-05-07 07:05 43.63808 1.08383 35831 ft 475 kts 328°
2026-05-07 07:05 43.66692 1.06178 36069 ft 473 kts 325°
2026-05-07 07:06 43.69523 1.03851 36262 ft 472 kts 324°
2026-05-07 07:06 43.72321 1.01468 36469 ft 472 kts 323°
2026-05-07 07:06 43.75110 0.99057 36657 ft 473 kts 323°
2026-05-07 07:06 43.77895 0.96647 36872 ft 473 kts 323°
2026-05-07 07:07 43.80688 0.94239 37073 ft 473 kts 323°
2026-05-07 07:07 43.83488 0.91836 37270 ft 473 kts 324°
2026-05-07 07:07 43.86292 0.89438 37449 ft 473 kts 324°
2026-05-07 07:07 43.89166 0.87177 37610 ft 477 kts 329°
2026-05-07 07:08 43.92144 0.85145 37771 ft 478 kts 330°
2026-05-07 07:08 43.95151 0.83163 37959 ft 478 kts 330°
2026-05-07 07:08 43.98130 0.81238 38126 ft 479 kts 331°
2026-05-07 07:08 44.01160 0.79295 38275 ft 479 kts 331°
2026-05-07 07:09 44.04185 0.77357 38439 ft 479 kts 331°
2026-05-07 07:09 44.07211 0.75412 38573 ft 479 kts 331°
2026-05-07 07:09 44.10235 0.73463 38715 ft 479 kts 331°
2026-05-07 07:09 44.13268 0.71501 38811 ft 480 kts 331°
2026-05-07 07:10 44.18990 0.67787 39000 ft 480 kts 331°
2026-05-07 07:10 44.22009 0.65823 39114 ft 480 kts 331°
2026-05-07 07:10 44.25039 0.63849 39201 ft 480 kts 331°
2026-05-07 07:11 44.31100 0.59895 39381 ft 481 kts 331°
2026-05-07 07:11 44.37129 0.55953 39553 ft 481 kts 331°
2026-05-07 07:12 44.43224 0.51958 39738 ft 481 kts 331°
2026-05-07 07:12 44.49268 0.47969 39891 ft 482 kts 331°
2026-05-07 07:13 44.55341 0.43936 40022 ft 482 kts 331°
2026-05-07 07:13 44.61357 0.39931 40024 ft 481 kts 331°
2026-05-07 07:14 44.67407 0.35897 40024 ft 481 kts 331°
2026-05-07 07:14 44.73459 0.31853 40021 ft 481 kts 331°
2026-05-07 07:15 44.79515 0.27797 40023 ft 481 kts 331°
2026-05-07 07:15 44.85357 0.23876 40024 ft 481 kts 331°
2026-05-07 07:16 44.91397 0.19812 40025 ft 481 kts 331°
2026-05-07 07:16 44.97402 0.15763 40023 ft 481 kts 331°
2026-05-07 07:17 45.03452 0.11674 40024 ft 481 kts 331°
2026-05-07 07:17 45.09504 0.07572 40023 ft 481 kts 331°
2026-05-07 07:18 45.15523 0.03484 40022 ft 481 kts 331°
2026-05-07 07:18 45.21562 -0.00627 40023 ft 482 kts 331°
2026-05-07 07:19 45.27637 -0.04773 40022 ft 482 kts 331°
2026-05-07 07:19 45.33634 -0.08875 40021 ft 482 kts 331°
2026-05-07 07:20 45.39680 -0.13020 40021 ft 482 kts 331°
2026-05-07 07:20 45.44707 -0.16474 40020 ft 482 kts 331°
2026-05-07 07:21 45.50742 -0.20630 40021 ft 482 kts 331°
2026-05-07 07:21 45.56784 -0.24801 40023 ft 482 kts 331°
2026-05-07 07:22 45.62823 -0.28982 40022 ft 482 kts 331°
2026-05-07 07:22 45.68474 -0.34034 40024 ft 478 kts 321°
2026-05-07 07:23 45.73723 -0.39784 40021 ft 477 kts 319°
2026-05-07 07:23 45.78934 -0.45709 40019 ft 477 kts 319°
2026-05-07 07:24 45.84142 -0.51650 40023 ft 478 kts 319°
2026-05-07 07:24 45.89352 -0.57578 40022 ft 478 kts 319°
2026-05-07 07:25 45.97136 -0.66434 40025 ft 478 kts 319°
2026-05-07 07:26 46.02374 -0.72411 40026 ft 478 kts 319°
2026-05-07 07:26 46.07566 -0.78352 40025 ft 478 kts 319°
2026-05-07 07:27 46.12774 -0.84326 40024 ft 479 kts 319°
2026-05-07 07:27 46.17960 -0.90288 40022 ft 479 kts 319°
2026-05-07 07:28 46.23203 -0.96333 40023 ft 479 kts 319°
2026-05-07 07:28 46.28374 -1.02310 40022 ft 479 kts 319°
2026-05-07 07:29 46.33601 -1.08367 40024 ft 479 kts 319°
2026-05-07 07:29 46.38786 -1.14392 40023 ft 479 kts 319°
2026-05-07 07:30 46.43989 -1.20451 40023 ft 479 kts 319°
2026-05-07 07:30 46.49165 -1.26495 40011 ft 479 kts 319°
2026-05-07 07:31 46.54361 -1.32577 40027 ft 479 kts 319°
2026-05-07 07:31 46.59495 -1.38728 40030 ft 479 kts 315°
2026-05-07 07:32 46.64208 -1.45539 40022 ft 478 kts 312°
2026-05-07 07:32 46.68821 -1.52515 40017 ft 478 kts 311°
2026-05-07 07:33 46.73415 -1.59530 40021 ft 478 kts 311°
2026-05-07 07:33 46.78001 -1.66535 40022 ft 478 kts 311°
2026-05-07 07:34 46.82585 -1.73537 40026 ft 478 kts 311°
2026-05-07 07:34 46.87170 -1.80555 40019 ft 478 kts 311°
2026-05-07 07:35 46.91770 -1.87614 40018 ft 478 kts 311°
2026-05-07 07:35 46.96344 -1.94653 40025 ft 478 kts 311°
2026-05-07 07:36 47.00928 -2.01717 40020 ft 479 kts 312°
2026-05-07 07:36 47.05605 -2.08731 40020 ft 479 kts 313°
2026-05-07 07:37 47.10282 -2.15638 40030 ft 479 kts 313°
2026-05-07 07:37 47.14996 -2.22625 40020 ft 479 kts 313°
2026-05-07 07:38 47.19668 -2.29595 40021 ft 479 kts 313°
2026-05-07 07:38 47.24339 -2.36592 40022 ft 479 kts 313°
2026-05-07 07:39 47.28987 -2.43575 40026 ft 479 kts 313°
2026-05-07 07:39 47.33647 -2.50594 40020 ft 480 kts 313°
2026-05-07 07:40 47.38306 -2.57629 40018 ft 480 kts 313°
2026-05-07 07:40 47.42950 -2.64660 40019 ft 480 kts 313°
2026-05-07 07:41 47.47640 -2.71781 40020 ft 480 kts 313°
2026-05-07 07:41 47.52291 -2.78861 40021 ft 480 kts 313°
2026-05-07 07:42 47.56928 -2.85938 40020 ft 480 kts 313°
2026-05-07 07:42 47.61524 -2.93075 40022 ft 480 kts 311°
2026-05-07 07:43 47.66088 -3.00324 40021 ft 480 kts 311°
2026-05-07 07:43 47.70634 -3.07577 40023 ft 480 kts 311°
2026-05-07 07:44 47.75164 -3.14807 40021 ft 480 kts 311°
2026-05-07 07:44 47.79738 -3.22115 40025 ft 480 kts 311°
2026-05-07 07:45 47.84268 -3.29372 40025 ft 480 kts 311°
2026-05-07 07:45 47.88816 -3.36678 40021 ft 480 kts 311°
2026-05-07 07:46 47.93339 -3.43964 40022 ft 480 kts 311°
2026-05-07 07:46 47.97875 -3.51294 40017 ft 480 kts 311°
2026-05-07 07:47 48.02382 -3.58595 40019 ft 480 kts 311°
2026-05-07 07:47 48.06916 -3.65960 40017 ft 480 kts 311°
2026-05-07 07:48 48.11427 -3.73310 40013 ft 480 kts 311°
2026-05-07 07:48 48.15941 -3.80683 40010 ft 480 kts 311°
2026-05-07 07:49 48.20454 -3.88078 40009 ft 480 kts 311°
2026-05-07 07:49 48.24923 -3.95418 40008 ft 480 kts 311°
2026-05-07 07:50 48.29446 -4.02870 40008 ft 480 kts 311°
2026-05-07 07:50 48.33913 -4.10251 40008 ft 480 kts 311°
2026-05-07 07:51 48.38404 -4.17692 40013 ft 480 kts 311°
2026-05-07 07:51 48.42884 -4.25135 40020 ft 480 kts 311°
2026-05-07 07:52 48.47347 -4.32571 40024 ft 480 kts 311°
2026-05-07 07:52 48.51813 -4.40033 40025 ft 480 kts 311°
2026-05-07 07:53 48.56307 -4.47564 40026 ft 480 kts 311°
2026-05-07 07:53 48.60769 -4.55064 40024 ft 480 kts 310°
2026-05-07 07:54 48.65204 -4.62538 40004 ft 480 kts 310°
2026-05-07 07:54 48.69639 -4.70034 40001 ft 480 kts 310°
2026-05-07 07:55 48.74095 -4.77586 40020 ft 480 kts 310°
2026-05-07 07:55 48.78545 -4.85151 40010 ft 480 kts 310°
2026-05-07 07:56 48.82985 -4.92720 40017 ft 480 kts 310°
2026-05-07 07:56 48.87413 -5.00290 40017 ft 480 kts 310°
2026-05-07 07:57 48.91827 -5.07859 40016 ft 480 kts 310°
2026-05-07 07:57 48.96238 -5.15444 40018 ft 480 kts 310°
2026-05-07 07:58 49.00687 -5.23117 40021 ft 480 kts 310°
2026-05-07 07:58 49.05074 -5.30706 40021 ft 480 kts 310°
2026-05-07 07:59 49.09479 -5.38347 40023 ft 480 kts 310°
2026-05-07 07:59 49.13915 -5.46066 40024 ft 480 kts 310°
2026-05-07 08:00 49.18317 -5.53747 40024 ft 480 kts 310°
2026-05-07 08:00 49.22697 -5.61412 40024 ft 480 kts 310°
2026-05-07 08:01 49.27081 -5.69107 40027 ft 481 kts 310°
2026-05-07 08:01 49.31494 -5.76874 40027 ft 481 kts 310°
2026-05-07 08:02 49.35850 -5.84566 40024 ft 481 kts 310°
2026-05-07 08:02 49.40254 -5.92365 40028 ft 481 kts 310°
2026-05-07 08:03 49.44603 -6.00089 40028 ft 481 kts 310°
2026-05-07 08:03 49.48962 -6.07855 40030 ft 481 kts 310°
2026-05-07 08:04 49.53307 -6.15672 40027 ft 481 kts 308°
2026-05-07 08:04 49.57346 -6.23923 40027 ft 480 kts 304°
2026-05-07 08:05 49.61183 -6.32363 40026 ft 480 kts 304°
2026-05-07 08:05 49.65003 -6.40772 40024 ft 480 kts 304°
2026-05-07 08:06 49.68872 -6.49182 40025 ft 480 kts 304°
2026-05-07 08:06 49.72758 -6.57596 40022 ft 480 kts 304°
2026-05-07 08:07 49.76631 -6.66001 40020 ft 480 kts 304°
2026-05-07 08:07 49.80490 -6.74407 40021 ft 481 kts 304°
2026-05-07 08:08 49.84364 -6.82876 40019 ft 481 kts 304°
2026-05-07 08:08 49.88220 -6.91333 40019 ft 481 kts 304°
2026-05-07 08:09 49.92066 -6.99798 40019 ft 481 kts 304°
2026-05-07 08:09 49.95904 -7.08268 40018 ft 481 kts 304°
2026-05-07 08:10 49.99100 -7.15345 40016 ft 481 kts 304°
2026-05-07 08:10 50.02952 -7.23898 40015 ft 481 kts 304°
2026-05-07 08:11 50.06781 -7.32426 40016 ft 481 kts 304°
2026-05-07 08:11 50.10596 -7.40954 40012 ft 481 kts 304°
2026-05-07 08:12 50.14402 -7.49486 40013 ft 481 kts 304°
2026-05-07 08:12 50.18214 -7.58060 40013 ft 481 kts 304°
2026-05-07 08:13 50.22039 -7.66693 40013 ft 481 kts 303°
2026-05-07 08:13 50.25819 -7.75252 40011 ft 481 kts 303°
2026-05-07 08:14 50.29601 -7.83843 40009 ft 481 kts 303°
2026-05-07 08:14 50.33377 -7.92463 40010 ft 481 kts 302°
2026-05-07 08:15 50.36497 -8.01717 40010 ft 479 kts 290°
2026-05-07 08:15 50.38307 -8.11733 40009 ft 478 kts 282°
2026-05-07 08:16 50.39660 -8.21956 40008 ft 478 kts 280°
2026-05-07 08:16 50.40934 -8.32163 40007 ft 478 kts 281°
2026-05-07 08:17 50.42229 -8.42396 40001 ft 479 kts 281°
2026-05-07 08:17 50.43539 -8.52629 40006 ft 479 kts 281°
2026-05-07 08:18 50.44850 -8.62889 40005 ft 479 kts 281°
2026-05-07 08:18 50.46145 -8.73109 40004 ft 479 kts 281°
2026-05-07 08:19 50.47432 -8.83340 40004 ft 479 kts 281°
2026-05-07 08:19 50.48710 -8.93590 40001 ft 479 kts 280°
2026-05-07 08:20 50.49975 -9.03812 40001 ft 479 kts 280°
2026-05-07 08:20 50.51238 -9.14093 39999 ft 479 kts 280°
2026-05-07 08:21 50.52488 -9.24342 39999 ft 479 kts 280°
2026-05-07 08:21 50.53730 -9.34616 39999 ft 478 kts 280°
2026-05-07 08:22 50.54963 -9.44886 39998 ft 478 kts 280°
2026-05-07 08:22 50.56194 -9.55229 40002 ft 481 kts 280°
2026-05-07 08:23 50.57420 -9.65604 39999 ft 484 kts 280°
2026-05-07 08:23 50.58638 -9.75999 39997 ft 483 kts 280°
2026-05-07 08:24 50.59851 -9.86434 39996 ft 483 kts 279°
2026-05-07 08:24 50.61042 -9.96771 39995 ft 483 kts 279°
2026-05-07 08:25 50.62235 -10.07205 39995 ft 482 kts 279°
2026-05-07 08:25 50.63411 -10.17584 39993 ft 482 kts 279°
2026-05-07 08:26 50.65157 -10.33149 39991 ft 482 kts 279°
2026-05-07 08:26 50.66319 -10.43615 39991 ft 482 kts 279°
2026-05-07 08:27 50.67456 -10.53946 39993 ft 482 kts 279°
2026-05-07 08:27 50.68596 -10.64398 39989 ft 482 kts 279°
2026-05-07 08:28 50.69718 -10.74769 39989 ft 481 kts 279°
2026-05-07 08:28 50.70834 -10.85172 39986 ft 481 kts 279°
2026-05-07 08:29 50.71945 -10.95621 39985 ft 481 kts 279°
2026-05-07 08:29 50.73041 -11.06027 39983 ft 481 kts 279°
2026-05-07 08:30 50.74130 -11.16454 39984 ft 481 kts 279°
2026-05-07 08:30 50.75208 -11.26873 39984 ft 480 kts 279°
2026-05-07 08:31 50.76269 -11.37224 39982 ft 480 kts 279°
2026-05-07 08:31 50.77328 -11.47643 39980 ft 480 kts 278°
2026-05-07 08:32 50.78372 -11.58021 39978 ft 479 kts 278°
2026-05-07 08:32 50.79413 -11.68453 39980 ft 479 kts 278°
2026-05-07 08:33 50.80445 -11.78904 39978 ft 479 kts 278°
2026-05-07 08:33 50.81464 -11.89314 39976 ft 479 kts 278°
2026-05-07 08:34 50.82473 -11.99717 39977 ft 479 kts 278°
2026-05-07 08:34 50.83471 -12.10118 39976 ft 479 kts 278°
2026-05-07 08:35 50.84456 -12.20473 39972 ft 479 kts 278°
2026-05-07 08:35 50.85442 -12.30951 39972 ft 479 kts 278°
2026-05-07 08:36 50.86412 -12.41359 39971 ft 479 kts 278°
2026-05-07 08:36 50.87371 -12.51751 39972 ft 479 kts 278°
2026-05-07 08:37 50.88328 -12.62222 39968 ft 479 kts 277°
2026-05-07 08:37 50.89271 -12.72648 39967 ft 479 kts 277°
2026-05-07 08:38 50.90205 -12.83084 39966 ft 479 kts 277°
2026-05-07 08:38 50.91133 -12.93567 39967 ft 480 kts 277°
2026-05-07 08:39 50.92045 -13.03975 39963 ft 480 kts 277°
2026-05-07 08:39 50.92955 -13.14462 39964 ft 480 kts 277°
2026-05-07 08:40 50.93859 -13.25002 39963 ft 480 kts 277°
2026-05-07 08:40 50.94747 -13.35466 39965 ft 480 kts 277°
2026-05-07 08:41 50.95623 -13.45901 39960 ft 479 kts 277°
2026-05-07 08:41 50.96494 -13.56395 39962 ft 479 kts 277°
2026-05-07 08:42 50.97355 -13.66880 39961 ft 479 kts 276°
2026-05-07 08:42 50.98205 -13.77363 39964 ft 479 kts 276°
2026-05-07 08:43 50.99045 -13.87831 39965 ft 479 kts 276°
2026-05-07 08:43 50.99840 -13.98297 39963 ft 478 kts 274°
2026-05-07 08:44 51.00067 -14.08879 39961 ft 477 kts 270°
2026-05-07 08:44 51.00107 -14.19342 39961 ft 477 kts 269°
2026-05-07 08:45 51.00109 -14.29901 39961 ft 477 kts 269°
2026-05-07 08:45 51.00111 -14.40416 39962 ft 477 kts 269°
2026-05-07 08:46 51.00112 -14.50929 39960 ft 476 kts 269°
2026-05-07 08:46 51.00107 -14.61446 39957 ft 476 kts 269°
2026-05-07 08:47 51.00093 -14.71964 39960 ft 476 kts 269°
2026-05-07 08:47 51.00069 -14.82482 39961 ft 475 kts 269°
2026-05-07 08:48 51.00035 -14.92911 39963 ft 475 kts 269°
2026-05-07 08:48 51.00034 -15.03419 39963 ft 475 kts 270°
2026-05-07 08:49 51.00225 -15.13903 39966 ft 474 kts 271°
2026-05-07 08:49 51.00473 -15.24306 39964 ft 474 kts 271°
2026-05-07 08:50 51.00695 -15.34750 39964 ft 473 kts 271°
2026-05-07 08:50 51.00889 -15.45216 39967 ft 473 kts 271°
2026-05-07 08:51 51.01065 -15.55629 39965 ft 473 kts 271°
2026-05-07 08:51 51.01232 -15.66051 39966 ft 472 kts 270°
2026-05-07 08:52 51.01391 -15.76478 39965 ft 472 kts 270°
2026-05-07 08:52 51.01541 -15.86948 39964 ft 472 kts 270°
2026-05-07 08:53 51.01681 -15.97319 39967 ft 471 kts 270°
2026-05-07 08:53 51.01812 -16.07739 39968 ft 471 kts 270°
2026-05-07 08:54 51.01934 -16.18123 39968 ft 472 kts 270°
2026-05-07 08:54 51.02046 -16.28533 39966 ft 472 kts 270°
2026-05-07 08:55 51.02150 -16.38965 39969 ft 472 kts 270°
2026-05-07 08:55 51.02244 -16.49371 39965 ft 472 kts 270°
2026-05-07 08:56 51.02329 -16.59810 39966 ft 472 kts 270°
2026-05-07 08:56 51.02404 -16.70224 39969 ft 472 kts 269°
2026-05-07 08:57 51.02470 -16.80655 39968 ft 473 kts 269°
2026-05-07 08:57 51.02528 -16.91137 39969 ft 473 kts 269°
2026-05-07 08:58 51.02575 -17.01503 39971 ft 473 kts 269°
2026-05-07 08:58 51.02614 -17.11963 39968 ft 473 kts 269°
2026-05-07 08:59 51.02643 -17.22409 39971 ft 473 kts 269°
2026-05-07 08:59 51.02660 -17.31117 39971 ft 473 kts 269°
2026-05-07 09:00 51.02672 -17.41586 39969 ft 473 kts 269°
2026-05-07 09:00 51.02675 -17.51994 39971 ft 473 kts 269°
2026-05-07 09:01 51.02669 -17.62464 39970 ft 473 kts 269°
2026-05-07 09:01 51.02653 -17.72858 39971 ft 473 kts 269°
2026-05-07 09:02 51.02628 -17.83298 39972 ft 473 kts 269°
2026-05-07 09:02 51.02594 -17.93748 39972 ft 473 kts 269°
2026-05-07 09:03 51.02550 -18.04193 39971 ft 473 kts 269°
2026-05-07 09:03 51.02497 -18.14683 39972 ft 473 kts 269°
2026-05-07 09:04 51.02435 -18.25104 39973 ft 473 kts 269°
2026-05-07 09:04 51.02363 -18.35577 39972 ft 473 kts 269°
2026-05-07 09:05 51.02282 -18.46029 39970 ft 474 kts 268°
2026-05-07 09:05 51.02191 -18.56455 39969 ft 474 kts 268°
2026-05-07 09:06 51.02092 -18.66900 39966 ft 474 kts 268°
2026-05-07 09:06 51.01983 -18.77355 39965 ft 474 kts 268°
2026-05-07 09:07 51.01864 -18.87834 39965 ft 474 kts 268°
2026-05-07 09:07 51.01737 -18.98270 39970 ft 474 kts 268°
2026-05-07 09:08 51.01600 -19.08708 39963 ft 474 kts 268°
2026-05-07 09:08 51.01453 -19.19162 39968 ft 474 kts 268°
2026-05-07 09:09 51.01298 -19.29624 39967 ft 474 kts 268°
2026-05-07 09:09 51.01132 -19.40126 39961 ft 474 kts 268°
2026-05-07 09:10 51.00958 -19.50524 39960 ft 474 kts 268°
2026-05-07 09:10 51.00774 -19.61003 39964 ft 474 kts 268°
2026-05-07 09:11 51.00581 -19.71461 39957 ft 474 kts 268°
2026-05-07 09:11 51.00379 -19.81919 39955 ft 475 kts 268°
2026-05-07 09:12 51.00165 -19.92461 39950 ft 475 kts 268°
2026-05-07 09:12 50.99899 -20.02926 39952 ft 475 kts 266°
2026-05-07 09:13 50.99365 -20.13339 39948 ft 475 kts 265°
2026-05-07 09:13 50.98706 -20.23842 39944 ft 475 kts 264°
2026-05-07 09:14 50.98062 -20.34188 39942 ft 474 kts 265°
2026-05-07 09:14 50.97434 -20.44620 39944 ft 474 kts 265°
2026-05-07 09:15 50.96810 -20.55041 39942 ft 474 kts 265°
2026-05-07 09:15 50.96177 -20.65488 39943 ft 474 kts 265°
2026-05-07 09:16 50.95536 -20.75881 39945 ft 474 kts 265°
2026-05-07 09:16 50.94887 -20.86233 39944 ft 474 kts 265°
2026-05-07 09:17 50.94226 -20.96630 39946 ft 474 kts 265°
2026-05-07 09:17 50.93554 -21.07052 39944 ft 474 kts 265°
2026-05-07 09:18 50.92875 -21.17444 39948 ft 474 kts 265°
2026-05-07 09:18 50.92187 -21.27820 39945 ft 474 kts 265°
2026-05-07 09:19 50.91490 -21.38198 39944 ft 474 kts 265°
2026-05-07 09:19 50.90785 -21.48555 39950 ft 474 kts 265°
2026-05-07 09:20 50.90070 -21.58931 39951 ft 474 kts 265°
2026-05-07 09:20 50.89343 -21.69299 39949 ft 474 kts 265°
2026-05-07 09:21 50.88609 -21.79699 39950 ft 474 kts 265°
2026-05-07 09:21 50.87865 -21.90062 39953 ft 475 kts 265°
2026-05-07 09:22 50.87110 -22.00451 39951 ft 475 kts 264°
2026-05-07 09:22 50.86351 -22.10777 39953 ft 475 kts 264°
2026-05-07 09:23 50.85576 -22.21177 39953 ft 476 kts 264°
2026-05-07 09:23 50.84792 -22.31580 39950 ft 476 kts 264°
2026-05-07 09:24 50.83999 -22.41992 39954 ft 477 kts 264°
2026-05-07 09:24 50.83196 -22.52377 39956 ft 477 kts 264°
2026-05-07 09:25 50.82380 -22.62831 39952 ft 477 kts 264°
2026-05-07 09:25 50.81559 -22.73209 39955 ft 477 kts 264°
2026-05-07 09:26 50.80729 -22.83576 39949 ft 477 kts 264°
2026-05-07 09:26 50.79882 -22.94029 39953 ft 477 kts 264°
2026-05-07 09:27 50.79035 -23.04389 39954 ft 477 kts 264°
2026-05-07 09:28 50.77740 -23.19974 39953 ft 477 kts 264°
2026-05-07 09:28 50.76866 -23.30350 39949 ft 476 kts 264°
2026-05-07 09:29 50.75989 -23.40715 39948 ft 476 kts 264°
2026-05-07 09:29 50.75103 -23.51062 39953 ft 476 kts 264°
2026-05-07 09:30 50.74199 -23.61448 39955 ft 476 kts 264°
2026-05-07 09:30 50.73288 -23.71762 39957 ft 476 kts 264°
2026-05-07 09:31 50.72364 -23.82138 39958 ft 477 kts 264°
2026-05-07 09:31 50.71439 -23.92489 39961 ft 477 kts 264°
2026-05-07 09:32 50.70503 -24.02823 39962 ft 477 kts 264°
2026-05-07 09:32 50.69566 -24.13234 39963 ft 478 kts 264°
2026-05-07 09:33 50.68600 -24.23619 39968 ft 478 kts 264°
2026-05-07 09:33 50.67636 -24.33965 39967 ft 479 kts 264°
2026-05-07 09:34 50.66661 -24.44345 39970 ft 479 kts 263°
2026-05-07 09:34 50.65661 -24.54697 39971 ft 479 kts 263°
2026-05-07 09:35 50.64655 -24.65087 39976 ft 479 kts 264°
2026-05-07 09:35 50.63651 -24.75479 39974 ft 479 kts 264°
2026-05-07 09:36 50.62641 -24.85825 39972 ft 479 kts 264°
2026-05-07 09:36 50.61613 -24.96167 39979 ft 480 kts 264°
2026-05-07 09:37 50.60573 -25.06525 39981 ft 480 kts 263°
2026-05-07 09:37 50.59532 -25.16914 39977 ft 480 kts 264°
2026-05-07 09:38 50.58498 -25.27281 39983 ft 480 kts 263°
2026-05-07 09:38 50.57432 -25.37669 39987 ft 481 kts 263°
2026-05-07 09:39 50.56353 -25.48076 39986 ft 481 kts 264°
2026-05-07 09:39 50.55276 -25.58465 39988 ft 482 kts 263°
2026-05-07 09:40 50.54176 -25.68889 39993 ft 482 kts 263°
2026-05-07 09:40 50.53072 -25.79234 39988 ft 483 kts 263°
2026-05-07 09:41 50.51952 -25.89648 39986 ft 483 kts 263°
2026-05-07 09:41 50.50818 -26.00054 39995 ft 483 kts 263°
2026-05-07 09:42 50.49681 -26.10453 39996 ft 484 kts 263°
2026-05-07 09:42 50.48538 -26.20846 39994 ft 484 kts 263°
2026-05-07 09:43 50.47383 -26.31313 39994 ft 484 kts 263°
2026-05-07 09:43 50.46227 -26.41648 39998 ft 485 kts 263°
2026-05-07 09:44 50.45033 -26.52141 39998 ft 485 kts 263°
2026-05-07 09:44 50.43851 -26.62548 40003 ft 485 kts 263°
2026-05-07 09:45 50.42657 -26.72941 40002 ft 486 kts 263°
2026-05-07 09:45 50.41453 -26.83374 40005 ft 486 kts 263°
2026-05-07 09:46 50.40238 -26.93766 40007 ft 486 kts 263°
2026-05-07 09:46 50.39012 -27.04199 40011 ft 486 kts 263°
2026-05-07 09:47 50.37781 -27.14576 40011 ft 487 kts 263°
2026-05-07 09:47 50.36536 -27.25003 40011 ft 487 kts 263°
2026-05-07 09:48 50.35489 -27.33661 40018 ft 487 kts 263°
2026-05-07 09:48 50.34221 -27.44126 40017 ft 487 kts 263°
2026-05-07 09:49 50.32953 -27.54503 40017 ft 487 kts 263°
2026-05-07 09:49 50.31669 -27.64911 40018 ft 488 kts 263°
2026-05-07 09:50 50.30376 -27.75323 40021 ft 488 kts 263°
2026-05-07 09:50 50.29071 -27.85744 40020 ft 488 kts 263°
2026-05-07 09:51 50.27754 -27.96180 40026 ft 488 kts 263°
2026-05-07 09:51 50.26435 -28.06546 40029 ft 488 kts 263°
2026-05-07 09:52 50.25102 -28.16953 40022 ft 488 kts 263°
2026-05-07 09:52 50.23763 -28.27330 40026 ft 488 kts 263°
2026-05-07 09:53 50.22412 -28.37720 40034 ft 488 kts 263°
2026-05-07 09:53 50.21045 -28.48159 40042 ft 489 kts 263°
2026-05-07 09:54 50.19675 -28.58535 40039 ft 488 kts 263°
2026-05-07 09:54 50.18298 -28.68897 40039 ft 488 kts 263°
2026-05-07 09:55 50.16909 -28.79267 40033 ft 489 kts 262°
2026-05-07 09:55 50.15515 -28.89611 40041 ft 489 kts 262°
2026-05-07 09:56 50.14109 -28.99963 40048 ft 489 kts 262°
2026-05-07 09:56 50.12691 -29.10324 40045 ft 489 kts 262°
2026-05-07 09:57 50.11263 -29.20692 40049 ft 489 kts 262°
2026-05-07 09:57 50.09825 -29.31057 40050 ft 489 kts 262°
2026-05-07 09:58 50.08383 -29.41379 40054 ft 489 kts 262°
2026-05-07 09:58 50.06928 -29.51718 40051 ft 489 kts 262°
2026-05-07 09:59 50.05468 -29.62030 40054 ft 489 kts 262°
2026-05-07 09:59 50.03999 -29.72329 40056 ft 488 kts 262°
2026-05-07 10:00 50.02515 -29.82664 40059 ft 488 kts 262°
2026-05-07 10:00 50.01028 -29.92954 40063 ft 488 kts 262°
2026-05-07 10:01 49.99595 -30.03229 40064 ft 487 kts 264°
2026-05-07 10:01 49.98461 -30.13592 40068 ft 485 kts 266°
2026-05-07 10:02 49.97421 -30.23965 40073 ft 484 kts 266°
2026-05-07 10:02 49.96368 -30.34320 40067 ft 484 kts 266°
2026-05-07 10:03 49.95304 -30.44604 40073 ft 484 kts 266°
2026-05-07 10:03 49.94199 -30.54962 40080 ft 484 kts 265°
2026-05-07 10:04 49.93080 -30.65262 40080 ft 484 kts 265°
2026-05-07 10:04 49.91954 -30.75528 40080 ft 484 kts 265°
2026-05-07 10:05 49.90811 -30.85868 40084 ft 484 kts 265°
2026-05-07 10:05 49.89668 -30.96125 40083 ft 484 kts 265°
2026-05-07 10:06 49.88518 -31.06365 40090 ft 484 kts 265°
2026-05-07 10:06 49.87350 -31.16678 40089 ft 484 kts 265°
2026-05-07 10:07 49.86183 -31.26895 40091 ft 483 kts 265°
2026-05-07 10:07 49.84996 -31.37197 40100 ft 483 kts 264°
2026-05-07 10:08 49.83809 -31.47427 40104 ft 483 kts 264°
2026-05-07 10:08 49.82615 -31.57623 40110 ft 483 kts 264°
2026-05-07 10:09 49.81401 -31.67914 40107 ft 483 kts 264°
2026-05-07 10:09 49.80194 -31.78066 40113 ft 482 kts 264°
2026-05-07 10:10 49.78971 -31.88273 40116 ft 482 kts 264°
2026-05-07 10:10 49.77737 -31.98487 40114 ft 483 kts 264°
2026-05-07 10:11 49.76498 -32.08661 40120 ft 483 kts 264°
2026-05-07 10:11 49.75243 -32.18899 40118 ft 483 kts 263°
2026-05-07 10:12 49.73987 -32.29057 40115 ft 482 kts 263°
2026-05-07 10:12 49.72722 -32.39216 40118 ft 482 kts 263°
2026-05-07 10:13 49.71442 -32.49415 40120 ft 482 kts 263°
2026-05-07 10:13 49.70156 -32.59585 40124 ft 482 kts 263°
2026-05-07 10:14 49.68864 -32.69725 40122 ft 482 kts 263°
2026-05-07 10:14 49.67557 -32.79913 40126 ft 482 kts 263°
2026-05-07 10:15 49.66245 -32.90063 40140 ft 482 kts 263°
2026-05-07 10:15 49.64925 -33.00198 40126 ft 482 kts 263°
2026-05-07 10:16 49.63596 -33.10330 40139 ft 482 kts 263°
2026-05-07 10:16 49.62256 -33.20477 40145 ft 482 kts 262°
2026-05-07 10:17 49.60911 -33.30579 40140 ft 482 kts 262°
2026-05-07 10:17 49.59553 -33.40715 40150 ft 481 kts 262°
2026-05-07 10:18 49.58199 -33.50753 40150 ft 481 kts 262°
2026-05-07 10:18 49.56821 -33.60892 40152 ft 481 kts 262°
2026-05-07 10:19 49.55445 -33.70949 40164 ft 481 kts 262°
2026-05-07 10:19 49.54056 -33.81028 40162 ft 481 kts 262°
2026-05-07 10:20 49.52662 -33.91079 40164 ft 481 kts 262°
2026-05-07 10:20 49.51259 -34.01130 40173 ft 480 kts 262°
2026-05-07 10:21 49.49844 -34.11186 40175 ft 480 kts 261°
2026-05-07 10:21 49.48431 -34.21173 40181 ft 480 kts 261°
2026-05-07 10:22 49.47001 -34.31202 40183 ft 480 kts 261°
2026-05-07 10:22 49.45563 -34.41229 40187 ft 479 kts 261°
2026-05-07 10:23 49.44128 -34.51170 40187 ft 479 kts 261°
2026-05-07 10:23 49.42669 -34.61207 40190 ft 479 kts 261°
2026-05-07 10:24 49.41209 -34.71183 40196 ft 479 kts 261°
2026-05-07 10:24 49.39741 -34.81153 40202 ft 479 kts 261°
2026-05-07 10:25 49.38264 -34.91122 40201 ft 478 kts 261°
2026-05-07 10:25 49.36787 -35.01029 40205 ft 478 kts 261°
2026-05-07 10:26 49.35294 -35.10971 40209 ft 478 kts 260°
2026-05-07 10:26 49.33788 -35.20948 40210 ft 478 kts 260°
2026-05-07 10:27 49.32282 -35.30856 40217 ft 478 kts 260°
2026-05-07 10:27 49.30768 -35.40754 40218 ft 478 kts 260°
2026-05-07 10:28 49.29246 -35.50647 40218 ft 478 kts 260°
2026-05-07 10:28 49.27713 -35.60545 40226 ft 477 kts 260°
2026-05-07 10:29 49.26175 -35.70420 40224 ft 477 kts 260°
2026-05-07 10:29 49.24623 -35.80323 40232 ft 477 kts 260°
2026-05-07 10:30 49.22288 -35.95103 40229 ft 477 kts 259°
2026-05-07 10:30 49.20720 -36.04960 40232 ft 476 kts 259°
2026-05-07 10:31 49.19148 -36.14781 40233 ft 476 kts 259°
2026-05-07 10:31 49.17570 -36.24583 40240 ft 476 kts 259°
2026-05-07 10:32 49.15981 -36.34395 40244 ft 476 kts 259°
2026-05-07 10:32 49.14386 -36.44185 40242 ft 475 kts 259°
2026-05-07 10:33 49.12774 -36.54021 40250 ft 475 kts 259°
2026-05-07 10:33 49.11161 -36.63810 40255 ft 475 kts 259°
2026-05-07 10:34 49.09548 -36.73539 40245 ft 475 kts 259°
2026-05-07 10:34 49.07920 -36.83303 40263 ft 475 kts 259°
2026-05-07 10:35 49.06283 -36.93065 40259 ft 475 kts 259°
2026-05-07 10:35 49.04646 -37.02772 40260 ft 474 kts 259°
2026-05-07 10:36 49.02994 -37.12518 40260 ft 474 kts 259°
2026-05-07 10:36 49.01613 -37.20618 40266 ft 474 kts 259°
2026-05-07 10:37 48.99952 -37.30315 40265 ft 474 kts 259°
2026-05-07 10:37 48.98282 -37.40007 40267 ft 473 kts 259°
2026-05-07 10:38 48.96604 -37.49694 40268 ft 473 kts 258°
2026-05-07 10:38 48.94918 -37.59372 40270 ft 473 kts 258°
2026-05-07 10:39 48.93236 -37.68976 40271 ft 472 kts 258°
2026-05-07 10:39 48.92379 -37.73846 40109 ft 472 kts 260°
2026-05-07 10:39 48.91525 -37.78623 40241 ft 472 kts 259°
2026-05-07 10:40 48.89784 -37.88335 40275 ft 478 kts 260°
2026-05-07 10:40 48.88040 -37.98138 40277 ft 480 kts 260°
2026-05-07 10:41 48.86305 -38.07927 40275 ft 480 kts 260°
2026-05-07 10:41 48.84570 -38.17643 40272 ft 479 kts 260°
2026-05-07 10:42 48.82801 -38.27442 40276 ft 479 kts 259°
2026-05-07 10:42 48.81025 -38.37203 40278 ft 479 kts 259°
2026-05-07 10:43 48.79256 -38.46874 40278 ft 479 kts 259°
2026-05-07 10:43 48.77459 -38.56647 40281 ft 479 kts 259°
2026-05-07 10:44 48.75662 -38.66370 40279 ft 479 kts 259°
2026-05-07 10:44 48.73868 -38.76030 40278 ft 479 kts 259°
2026-05-07 10:45 48.72057 -38.85728 40279 ft 478 kts 259°
2026-05-07 10:45 48.70233 -38.95443 40285 ft 478 kts 259°
2026-05-07 10:46 48.68411 -39.05099 40292 ft 478 kts 258°
2026-05-07 10:46 48.66578 -39.14765 40278 ft 478 kts 258°
2026-05-07 10:47 48.64734 -39.24438 40280 ft 478 kts 258°
2026-05-07 10:47 48.62893 -39.34041 40279 ft 477 kts 258°
2026-05-07 10:48 48.61029 -39.43719 40281 ft 477 kts 258°
2026-05-07 10:48 48.59175 -39.53298 40283 ft 477 kts 258°
2026-05-07 10:49 48.57305 -39.62912 40280 ft 477 kts 258°
2026-05-07 10:49 48.55432 -39.72493 40282 ft 476 kts 258°
2026-05-07 10:50 48.53549 -39.82074 40284 ft 476 kts 258°
2026-05-07 10:50 48.51654 -39.91672 40283 ft 476 kts 257°
2026-05-07 10:51 48.49945 -40.01260 40285 ft 472 kts 263°
2026-05-07 10:51 48.48813 -40.10992 40283 ft 471 kts 265°
2026-05-07 10:52 48.47804 -40.20733 40283 ft 471 kts 265°
2026-05-07 10:52 48.46805 -40.30501 40284 ft 471 kts 265°
2026-05-07 10:53 48.45788 -40.40200 40283 ft 471 kts 264°
2026-05-07 10:53 48.44746 -40.49942 40285 ft 471 kts 264°
2026-05-07 10:54 48.43692 -40.59686 40287 ft 471 kts 264°
2026-05-07 10:54 48.42637 -40.69365 40286 ft 470 kts 264°
2026-05-07 10:55 48.41564 -40.79134 40287 ft 471 kts 264°
2026-05-07 10:55 48.40489 -40.88846 40287 ft 471 kts 264°
2026-05-07 10:56 48.39406 -40.98550 40290 ft 471 kts 264°
2026-05-07 10:56 48.38315 -41.08251 40288 ft 472 kts 264°
2026-05-07 10:57 48.37206 -41.18038 40288 ft 472 kts 264°
2026-05-07 10:57 48.36098 -41.27729 40290 ft 472 kts 263°
2026-05-07 10:58 48.34981 -41.37432 40290 ft 473 kts 263°
2026-05-07 10:58 48.33845 -41.47219 40291 ft 473 kts 263°
2026-05-07 10:59 48.32711 -41.56920 40288 ft 473 kts 263°
2026-05-07 10:59 48.31566 -41.66637 40289 ft 474 kts 263°
2026-05-07 11:00 48.30409 -41.76378 40287 ft 474 kts 263°
2026-05-07 11:00 48.29243 -41.86126 40292 ft 474 kts 263°
2026-05-07 11:01 48.28073 -41.95835 40288 ft 474 kts 263°
2026-05-07 11:01 48.26889 -42.05580 40294 ft 474 kts 262°
2026-05-07 11:02 48.25698 -42.15322 40287 ft 474 kts 262°
2026-05-07 11:02 48.24497 -42.25063 40297 ft 474 kts 262°
2026-05-07 11:03 48.23291 -42.34779 40289 ft 474 kts 262°
2026-05-07 11:03 48.22084 -42.44435 40291 ft 473 kts 262°
2026-05-07 11:04 48.20857 -42.54177 40302 ft 473 kts 262°
2026-05-07 11:04 48.19630 -42.63852 40294 ft 472 kts 262°
2026-05-07 11:05 48.18394 -42.73522 40296 ft 472 kts 262°
2026-05-07 11:05 48.17153 -42.83177 40297 ft 472 kts 261°
2026-05-07 11:06 48.15905 -42.92804 40297 ft 471 kts 261°
2026-05-07 11:06 48.14652 -43.02413 40303 ft 471 kts 261°
2026-05-07 11:07 48.13387 -43.12042 40303 ft 470 kts 261°
2026-05-07 11:07 48.12119 -43.21633 40305 ft 470 kts 261°
2026-05-07 11:08 48.10845 -43.31197 40300 ft 470 kts 261°
2026-05-07 11:08 48.09559 -43.40794 40304 ft 469 kts 261°
2026-05-07 11:09 48.08273 -43.50329 40305 ft 469 kts 261°
2026-05-07 11:09 48.06975 -43.59881 40309 ft 469 kts 261°
2026-05-07 11:10 48.05662 -43.69489 40309 ft 469 kts 261°
2026-05-07 11:10 48.04353 -43.78998 40310 ft 469 kts 260°
2026-05-07 11:11 48.03031 -43.88541 40313 ft 469 kts 260°
2026-05-07 11:11 48.01703 -43.98066 40313 ft 469 kts 260°
2026-05-07 11:12 48.00359 -44.07644 40317 ft 469 kts 260°
2026-05-07 11:12 47.99015 -44.17164 40320 ft 469 kts 260°
2026-05-07 11:13 47.97659 -44.26698 40317 ft 470 kts 260°
2026-05-07 11:13 47.96295 -44.36237 40318 ft 470 kts 260°
2026-05-07 11:14 47.94929 -44.45726 40320 ft 470 kts 260°
2026-05-07 11:14 47.93551 -44.55244 40323 ft 470 kts 260°
2026-05-07 11:15 47.92166 -44.64746 40325 ft 470 kts 260°
2026-05-07 11:15 47.90767 -44.74290 40327 ft 470 kts 259°
2026-05-07 11:16 47.89359 -44.83832 40328 ft 470 kts 259°
2026-05-07 11:16 47.87953 -44.93297 40331 ft 471 kts 259°
2026-05-07 11:17 47.86524 -45.02868 40331 ft 471 kts 259°
2026-05-07 11:17 47.85097 -45.12361 40329 ft 471 kts 259°
2026-05-07 11:18 47.83663 -45.21846 40332 ft 471 kts 259°
2026-05-07 11:18 47.82209 -45.31408 40334 ft 472 kts 259°
2026-05-07 11:19 47.80753 -45.40923 40334 ft 472 kts 259°
2026-05-07 11:19 47.79300 -45.50365 40335 ft 472 kts 259°
2026-05-07 11:20 47.77818 -45.59939 40335 ft 472 kts 259°
2026-05-07 11:20 47.76339 -45.69434 40335 ft 472 kts 259°
2026-05-07 11:21 47.74851 -45.78930 40336 ft 472 kts 259°
2026-05-07 11:21 47.73356 -45.88416 40337 ft 472 kts 259°
2026-05-07 11:22 47.71857 -45.97879 40339 ft 472 kts 259°
2026-05-07 11:22 47.70339 -46.07397 40342 ft 473 kts 259°
2026-05-07 11:23 47.68821 -46.16865 40340 ft 472 kts 259°
2026-05-07 11:23 47.67295 -46.26331 40340 ft 472 kts 259°
2026-05-07 11:24 47.65763 -46.35782 40341 ft 472 kts 258°
2026-05-07 11:24 47.64212 -46.45292 40342 ft 472 kts 258°
2026-05-07 11:25 47.62657 -46.54773 40344 ft 472 kts 258°
2026-05-07 11:25 47.61363 -46.62625 40347 ft 472 kts 258°
2026-05-07 11:26 47.59538 -46.73634 40354 ft 472 kts 258°
2026-05-07 11:26 47.58229 -46.81484 40344 ft 472 kts 258°
2026-05-07 11:27 47.56648 -46.90926 40355 ft 472 kts 258°
2026-05-07 11:27 47.55056 -47.00377 40342 ft 472 kts 258°
2026-05-07 11:28 47.53468 -47.09754 40345 ft 471 kts 258°
2026-05-07 11:28 47.51870 -47.19134 40347 ft 471 kts 258°
2026-05-07 11:29 47.50253 -47.28581 40351 ft 471 kts 258°
2026-05-07 11:29 47.48648 -47.37906 40344 ft 470 kts 258°
2026-05-07 11:30 47.47030 -47.47256 40349 ft 470 kts 258°
2026-05-07 11:30 47.45398 -47.56640 40353 ft 469 kts 258°
2026-05-07 11:31 47.43769 -47.65955 40345 ft 469 kts 258°
2026-05-07 11:31 47.42128 -47.75289 40347 ft 469 kts 257°
2026-05-07 11:32 47.39659 -47.89238 40350 ft 468 kts 257°
2026-05-07 11:33 47.38007 -47.98514 40348 ft 468 kts 257°
2026-05-07 11:33 47.36351 -48.07767 40345 ft 467 kts 257°
2026-05-07 11:34 47.34689 -48.17005 40346 ft 467 kts 257°
2026-05-07 11:34 47.33009 -48.26291 40347 ft 466 kts 257°
2026-05-07 11:35 47.31334 -48.35506 40344 ft 466 kts 257°
2026-05-07 11:35 47.29649 -48.44729 40348 ft 466 kts 257°
2026-05-07 11:36 47.27968 -48.53883 40347 ft 466 kts 257°
2026-05-07 11:36 47.26261 -48.63138 40345 ft 465 kts 257°
2026-05-07 11:37 47.24559 -48.72316 40346 ft 465 kts 257°
2026-05-07 11:37 47.22846 -48.81507 40348 ft 465 kts 256°
2026-05-07 11:38 47.21137 -48.90629 40347 ft 465 kts 256°
2026-05-07 11:38 47.19415 -48.99781 40339 ft 465 kts 256°
2026-05-07 11:39 47.17681 -49.08952 40343 ft 465 kts 256°
2026-05-07 11:39 47.15940 -49.18110 40341 ft 465 kts 256°
2026-05-07 11:40 47.14190 -49.27273 40338 ft 465 kts 256°
2026-05-07 11:40 47.12444 -49.36376 40339 ft 465 kts 256°
2026-05-07 11:41 47.10681 -49.45520 40339 ft 465 kts 256°
2026-05-07 11:41 47.08912 -49.54652 40336 ft 465 kts 256°
2026-05-07 11:42 47.07140 -49.63756 40334 ft 465 kts 256°
2026-05-07 11:42 47.05358 -49.72868 40336 ft 465 kts 256°
2026-05-07 11:43 47.03573 -49.81949 40328 ft 465 kts 256°
2026-05-07 11:43 47.01766 -49.91101 40331 ft 465 kts 256°
2026-05-07 11:44 46.99953 -50.00194 40330 ft 465 kts 255°
2026-05-07 11:44 46.97922 -50.09163 40329 ft 466 kts 252°
2026-05-07 11:45 46.95719 -50.18136 40327 ft 466 kts 252°
2026-05-07 11:45 46.93525 -50.26998 40326 ft 466 kts 252°
2026-05-07 11:46 46.91329 -50.35971 40323 ft 466 kts 252°
2026-05-07 11:46 46.89166 -50.44853 40320 ft 466 kts 252°
2026-05-07 11:47 46.86991 -50.53762 40319 ft 466 kts 252°
2026-05-07 11:47 46.84798 -50.62705 40317 ft 466 kts 252°
2026-05-07 11:48 46.82616 -50.71563 40319 ft 465 kts 251°
2026-05-07 11:48 46.80423 -50.80432 40319 ft 465 kts 251°
2026-05-07 11:49 46.78214 -50.89325 40317 ft 465 kts 251°
2026-05-07 11:49 46.76008 -50.98175 40314 ft 464 kts 251°
2026-05-07 11:50 46.73796 -51.07014 40315 ft 464 kts 251°
2026-05-07 11:50 46.71577 -51.15847 40312 ft 463 kts 251°
2026-05-07 11:51 46.69358 -51.24646 40310 ft 463 kts 251°
2026-05-07 11:51 46.67131 -51.33441 40308 ft 462 kts 251°
2026-05-07 11:52 46.64905 -51.42198 40304 ft 462 kts 251°
2026-05-07 11:52 46.62677 -51.50935 40306 ft 461 kts 251°
2026-05-07 11:53 46.60447 -51.59640 40302 ft 460 kts 251°
2026-05-07 11:53 46.58196 -51.68398 40297 ft 460 kts 250°
2026-05-07 11:54 46.55964 -51.77048 40296 ft 459 kts 250°
2026-05-07 11:54 46.53705 -51.85769 40293 ft 459 kts 250°
2026-05-07 11:55 46.51458 -51.94411 40288 ft 458 kts 250°
2026-05-07 11:55 46.49643 -52.03207 40289 ft 456 kts 258°
2026-05-07 11:56 46.48430 -52.12278 40291 ft 456 kts 260°
2026-05-07 11:56 46.47341 -52.21303 40288 ft 455 kts 261°
2026-05-07 11:57 46.46241 -52.30373 40284 ft 455 kts 260°
2026-05-07 11:57 46.45124 -52.39356 40282 ft 455 kts 260°
2026-05-07 11:58 46.43984 -52.48385 40280 ft 454 kts 260°
2026-05-07 11:58 46.42838 -52.57389 40276 ft 454 kts 259°
2026-05-07 11:59 46.41685 -52.66396 40273 ft 454 kts 259°
2026-05-07 11:59 46.40528 -52.75377 40267 ft 453 kts 259°
2026-05-07 12:00 46.39369 -52.84321 40269 ft 453 kts 259°
2026-05-07 12:00 46.38203 -52.93259 40268 ft 453 kts 259°
2026-05-07 12:01 46.37025 -53.02235 40262 ft 452 kts 259°
2026-05-07 12:01 46.35849 -53.11133 40260 ft 452 kts 259°
2026-05-07 12:02 46.34662 -53.20059 40255 ft 451 kts 259°
2026-05-07 12:02 46.33471 -53.28967 40251 ft 451 kts 258°
2026-05-07 12:03 46.32269 -53.37900 40250 ft 450 kts 258°
2026-05-07 12:03 46.31070 -53.46742 40245 ft 450 kts 258°
2026-05-07 12:04 46.29861 -53.55610 40240 ft 449 kts 258°
2026-05-07 12:04 46.28644 -53.64480 40235 ft 449 kts 258°
2026-05-07 12:05 46.27426 -53.73314 40231 ft 448 kts 258°
2026-05-07 12:05 46.26193 -53.82195 40224 ft 448 kts 258°
2026-05-07 12:06 46.24965 -53.90987 40220 ft 448 kts 258°
2026-05-07 12:06 46.23726 -53.99813 40213 ft 447 kts 257°
2026-05-07 12:07 46.22489 -54.08564 40211 ft 447 kts 257°
2026-05-07 12:07 46.21237 -54.17376 40209 ft 447 kts 257°
2026-05-07 12:08 46.19983 -54.26150 40207 ft 446 kts 257°
2026-05-07 12:08 46.18720 -54.34931 40203 ft 446 kts 257°
2026-05-07 12:09 46.17459 -54.43651 40202 ft 446 kts 257°
2026-05-07 12:09 46.16179 -54.52456 40196 ft 446 kts 256°
2026-05-07 12:10 46.14906 -54.61156 40193 ft 446 kts 256°
2026-05-07 12:10 46.13613 -54.69946 40195 ft 446 kts 256°
2026-05-07 12:11 46.12320 -54.78686 40190 ft 446 kts 256°
2026-05-07 12:11 46.11024 -54.87395 40185 ft 446 kts 256°
2026-05-07 12:12 46.09717 -54.96131 40183 ft 445 kts 256°
2026-05-07 12:12 46.08407 -55.04840 40180 ft 444 kts 256°
2026-05-07 12:13 46.07095 -55.13513 40179 ft 443 kts 256°
2026-05-07 12:13 46.05996 -55.20742 40179 ft 443 kts 256°
2026-05-07 12:14 46.04672 -55.29407 40173 ft 442 kts 255°
2026-05-07 12:14 46.03350 -55.38012 40171 ft 441 kts 255°
2026-05-07 12:15 46.02021 -55.46613 40170 ft 441 kts 255°
2026-05-07 12:15 46.00677 -55.55270 40167 ft 441 kts 255°
2026-05-07 12:16 45.99334 -55.63871 40165 ft 441 kts 255°
2026-05-07 12:16 45.97990 -55.72434 40161 ft 441 kts 255°
2026-05-07 12:17 45.96628 -55.81067 40157 ft 441 kts 255°
2026-05-07 12:17 45.95265 -55.89663 40159 ft 441 kts 255°
2026-05-07 12:18 45.93898 -55.98239 40156 ft 441 kts 255°
2026-05-07 12:18 45.92520 -56.06840 40149 ft 441 kts 255°
2026-05-07 12:19 45.91138 -56.15419 40145 ft 441 kts 255°
2026-05-07 12:19 45.89758 -56.23941 40143 ft 441 kts 255°
2026-05-07 12:20 45.88358 -56.32546 40144 ft 441 kts 255°
2026-05-07 12:20 45.86957 -56.41111 40131 ft 440 kts 255°
2026-05-07 12:21 45.85563 -56.49595 40138 ft 440 kts 255°
2026-05-07 12:21 45.84142 -56.58196 40133 ft 440 kts 255°
2026-05-07 12:22 45.82731 -56.66692 40127 ft 440 kts 255°
2026-05-07 12:22 45.81307 -56.75225 40128 ft 440 kts 255°
2026-05-07 12:23 45.79888 -56.83690 40126 ft 440 kts 255°
2026-05-07 12:23 45.78448 -56.92230 40122 ft 439 kts 255°
2026-05-07 12:24 45.77008 -57.00737 40121 ft 439 kts 255°
2026-05-07 12:24 45.75565 -57.09214 40120 ft 439 kts 255°
2026-05-07 12:25 45.74117 -57.17681 40121 ft 438 kts 255°
2026-05-07 12:25 45.72667 -57.26117 40119 ft 438 kts 255°
2026-05-07 12:26 45.71206 -57.34578 40111 ft 437 kts 255°
2026-05-07 12:26 45.69742 -57.43017 40113 ft 436 kts 255°
2026-05-07 12:27 45.68274 -57.51439 40108 ft 436 kts 255°
2026-05-07 12:27 45.66806 -57.59820 40110 ft 435 kts 255°
2026-05-07 12:28 45.65335 -57.68179 40105 ft 434 kts 255°
2026-05-07 12:28 45.63851 -57.76572 40099 ft 433 kts 255°
2026-05-07 12:29 45.62372 -57.84899 40099 ft 433 kts 255°
2026-05-07 12:29 45.60893 -57.93189 40095 ft 432 kts 255°
2026-05-07 12:30 45.59401 -58.01509 40093 ft 431 kts 255°
2026-05-07 12:30 45.57914 -58.09770 40092 ft 430 kts 255°
2026-05-07 12:31 45.56418 -58.18041 40089 ft 429 kts 255°
2026-05-07 12:31 45.54929 -58.26235 40085 ft 428 kts 255°
2026-05-07 12:32 45.53425 -58.34477 40082 ft 427 kts 255°
2026-05-07 12:32 45.51927 -58.42645 40079 ft 425 kts 255°
2026-05-07 12:33 45.49684 -58.54815 40073 ft 423 kts 255°
2026-05-07 12:33 45.48188 -58.62886 40069 ft 422 kts 255°
2026-05-07 12:34 45.46677 -58.71001 40065 ft 421 kts 255°
2026-05-07 12:34 45.45177 -58.79023 40062 ft 420 kts 255°
2026-05-07 12:35 45.43670 -58.87053 40056 ft 419 kts 255°
2026-05-07 12:35 45.42157 -58.95075 40053 ft 419 kts 255°
2026-05-07 12:36 45.40644 -59.03064 40051 ft 418 kts 255°
2026-05-07 12:36 45.39129 -59.11031 40045 ft 417 kts 255°
2026-05-07 12:37 45.37612 -59.18978 40043 ft 417 kts 255°
2026-05-07 12:37 45.36090 -59.26916 40024 ft 416 kts 255°
2026-05-07 12:38 45.34561 -59.34852 40035 ft 415 kts 255°
2026-05-07 12:38 45.33037 -59.42736 40019 ft 415 kts 255°
2026-05-07 12:39 45.31508 -59.50616 40032 ft 414 kts 255°
2026-05-07 12:39 45.29966 -59.58526 40028 ft 414 kts 255°
2026-05-07 12:40 45.28428 -59.66382 40020 ft 414 kts 255°
2026-05-07 12:40 45.26878 -59.74270 40012 ft 413 kts 255°
2026-05-07 12:41 45.25338 -59.82076 40016 ft 413 kts 255°
2026-05-07 12:41 45.23783 -59.89924 40000 ft 412 kts 255°
2026-05-07 12:42 45.22227 -59.97752 39991 ft 412 kts 255°
2026-05-07 12:42 45.20667 -60.05564 39994 ft 412 kts 255°
2026-05-07 12:43 45.19100 -60.13381 39983 ft 412 kts 255°
2026-05-07 12:43 45.17530 -60.21179 39977 ft 413 kts 255°
2026-05-07 12:44 45.15946 -60.29019 39974 ft 413 kts 255°
2026-05-07 12:44 45.14367 -60.36806 39968 ft 413 kts 255°
2026-05-07 12:45 45.12772 -60.44640 39966 ft 413 kts 255°
2026-05-07 12:45 45.11177 -60.52438 39967 ft 413 kts 255°
2026-05-07 12:46 45.09573 -60.60258 39967 ft 413 kts 255°
2026-05-07 12:46 45.07970 -60.68038 39956 ft 413 kts 255°
2026-05-07 12:47 45.06357 -60.75835 39958 ft 412 kts 255°
2026-05-07 12:47 45.04742 -60.83613 39954 ft 411 kts 255°
2026-05-07 12:48 45.03134 -60.91331 39947 ft 411 kts 255°
2026-05-07 12:48 45.01512 -60.99080 39941 ft 410 kts 255°
2026-05-07 12:49 44.99891 -61.06804 39940 ft 410 kts 255°
2026-05-07 12:49 44.98272 -61.14482 39935 ft 409 kts 255°
2026-05-07 12:50 44.96638 -61.22207 39930 ft 409 kts 255°
2026-05-07 12:50 44.95010 -61.29873 39927 ft 408 kts 255°
2026-05-07 12:51 44.93372 -61.37558 39929 ft 408 kts 255°
2026-05-07 12:51 44.91734 -61.45212 39917 ft 407 kts 255°
2026-05-07 12:52 44.90091 -61.52867 39910 ft 406 kts 254°
2026-05-07 12:52 44.88452 -61.60468 39907 ft 405 kts 254°
2026-05-07 12:53 44.86814 -61.68040 39903 ft 404 kts 254°
2026-05-07 12:53 44.85170 -61.75614 39900 ft 402 kts 254°
2026-05-07 12:54 44.83534 -61.83124 39893 ft 401 kts 254°
2026-05-07 12:54 44.81896 -61.90615 39892 ft 400 kts 254°
2026-05-07 12:55 44.80257 -61.98081 39885 ft 399 kts 254°
2026-05-07 12:55 44.78617 -62.05527 39880 ft 398 kts 254°
2026-05-07 12:56 44.76979 -62.12939 39880 ft 397 kts 254°
2026-05-07 12:56 44.75331 -62.20372 39876 ft 396 kts 254°
2026-05-07 12:57 44.73690 -62.27745 39867 ft 395 kts 254°
2026-05-07 12:57 44.72038 -62.35146 39869 ft 395 kts 253°
2026-05-07 12:58 44.70394 -62.42482 39868 ft 395 kts 253°
2026-05-07 12:58 44.68737 -62.49849 39863 ft 394 kts 253°
2026-05-07 12:59 44.67086 -62.57168 39864 ft 394 kts 253°
2026-05-07 12:59 44.65425 -62.64501 39861 ft 393 kts 253°
2026-05-07 13:00 44.63768 -62.71799 39858 ft 393 kts 253°
2026-05-07 13:00 44.62103 -62.79102 39860 ft 392 kts 253°
2026-05-07 13:01 44.60437 -62.86388 39859 ft 392 kts 253°
2026-05-07 13:01 44.58768 -62.93665 39853 ft 392 kts 253°
2026-05-07 13:02 44.57377 -62.99708 39849 ft 391 kts 253°
2026-05-07 13:02 44.55698 -63.06980 39851 ft 391 kts 253°
2026-05-07 13:03 44.54020 -63.14224 39849 ft 391 kts 252°
2026-05-07 13:03 44.52331 -63.21492 39848 ft 392 kts 252°
2026-05-07 13:04 44.50640 -63.28742 39844 ft 392 kts 253°
2026-05-07 13:04 44.48941 -63.36005 39838 ft 393 kts 252°
2026-05-07 13:05 44.47238 -63.43264 39828 ft 393 kts 252°
2026-05-07 13:05 44.45527 -63.50528 39819 ft 393 kts 253°
2026-05-07 13:06 44.43811 -63.57794 39815 ft 394 kts 252°
2026-05-07 13:06 44.42089 -63.65057 39809 ft 394 kts 252°
2026-05-07 13:07 44.40347 -63.72384 39810 ft 395 kts 252°
2026-05-07 13:07 44.38613 -63.79653 39803 ft 395 kts 252°
2026-05-07 13:08 44.36877 -63.86901 39802 ft 394 kts 252°
2026-05-07 13:08 44.35132 -63.94172 39801 ft 394 kts 252°
2026-05-07 13:09 44.33386 -64.01418 39800 ft 394 kts 252°
2026-05-07 13:09 44.31634 -64.08668 39794 ft 393 kts 252°
2026-05-07 13:10 44.29884 -64.15885 39795 ft 393 kts 252°
2026-05-07 13:10 44.28137 -64.23068 39791 ft 392 kts 252°
2026-05-07 13:11 44.26375 -64.30290 39793 ft 392 kts 252°
2026-05-07 13:11 44.24608 -64.37510 39791 ft 392 kts 252°
2026-05-07 13:12 44.22847 -64.44681 39790 ft 392 kts 252°
2026-05-07 13:12 44.21075 -64.51875 39790 ft 392 kts 252°
2026-05-07 13:13 44.19307 -64.59029 39792 ft 391 kts 252°
2026-05-07 13:13 44.17534 -64.66181 39794 ft 391 kts 252°
2026-05-07 13:14 44.15754 -64.73343 39793 ft 391 kts 252°
2026-05-07 13:14 44.13975 -64.80471 39796 ft 390 kts 252°
2026-05-07 13:15 44.12184 -64.87618 39783 ft 390 kts 252°
2026-05-07 13:15 44.10406 -64.94711 39783 ft 389 kts 252°
2026-05-07 13:16 44.08628 -65.01779 39782 ft 389 kts 252°
2026-05-07 13:16 44.06834 -65.08884 39784 ft 388 kts 252°
2026-05-07 13:17 44.05041 -65.15964 39781 ft 387 kts 252°
2026-05-07 13:17 44.03261 -65.22974 39787 ft 387 kts 252°
2026-05-07 13:18 44.01468 -65.30012 39786 ft 386 kts 252°
2026-05-07 13:18 43.99658 -65.37091 39787 ft 386 kts 252°
2026-05-07 13:19 43.97867 -65.44079 39788 ft 386 kts 252°
2026-05-07 13:19 43.96072 -65.51061 39788 ft 385 kts 252°
2026-05-07 13:20 43.94270 -65.58047 39793 ft 385 kts 252°
2026-05-07 13:20 43.92456 -65.65061 39787 ft 384 kts 252°
2026-05-07 13:21 43.90656 -65.72000 39785 ft 383 kts 252°
2026-05-07 13:21 43.88851 -65.78939 39778 ft 382 kts 252°
2026-05-07 13:22 43.87048 -65.85849 39779 ft 381 kts 252°
2026-05-07 13:22 43.85244 -65.92744 39772 ft 380 kts 252°
2026-05-07 13:23 43.83445 -65.99599 39770 ft 380 kts 251°
2026-05-07 13:23 43.81633 -66.06482 39768 ft 379 kts 251°
2026-05-07 13:24 43.79822 -66.13345 39768 ft 378 kts 251°
2026-05-07 13:24 43.78020 -66.20154 39767 ft 378 kts 251°
2026-05-07 13:25 43.76206 -66.26984 39773 ft 378 kts 251°
2026-05-07 13:25 43.74391 -66.33803 39777 ft 378 kts 251°
2026-05-07 13:26 43.72581 -66.40584 39776 ft 378 kts 251°
2026-05-07 13:26 43.70752 -66.47412 39779 ft 378 kts 251°
2026-05-07 13:27 43.68923 -66.54229 39786 ft 378 kts 251°
2026-05-07 13:27 43.67106 -66.60976 39781 ft 377 kts 251°
2026-05-07 13:28 43.65269 -66.67777 39777 ft 377 kts 251°
2026-05-07 13:28 43.63431 -66.74569 39780 ft 377 kts 251°
2026-05-07 13:29 43.61596 -66.81323 39780 ft 377 kts 251°
2026-05-07 13:29 43.59752 -66.88097 39785 ft 377 kts 251°
2026-05-07 13:30 43.57914 -66.94829 39782 ft 377 kts 251°
2026-05-07 13:30 43.56052 -67.01614 39782 ft 377 kts 251°
2026-05-07 13:31 43.54165 -67.08373 39785 ft 377 kts 251°
2026-05-07 13:31 43.52279 -67.15085 39785 ft 376 kts 251°
2026-05-07 13:32 43.50395 -67.21776 39783 ft 376 kts 251°
2026-05-07 13:32 43.48492 -67.28526 39790 ft 376 kts 251°
2026-05-07 13:33 43.46598 -67.35220 39780 ft 376 kts 251°
2026-05-07 13:33 43.44701 -67.41918 39788 ft 377 kts 250°
2026-05-07 13:34 43.41837 -67.51992 39793 ft 377 kts 250°
2026-05-07 13:35 43.39923 -67.58701 39791 ft 377 kts 250°
2026-05-07 13:35 43.38004 -67.65408 39792 ft 377 kts 250°
2026-05-07 13:36 43.36075 -67.72133 39794 ft 377 kts 250°
2026-05-07 13:36 43.34158 -67.78796 39794 ft 377 kts 250°
2026-05-07 13:37 43.32225 -67.85498 39793 ft 377 kts 250°
2026-05-07 13:37 43.30282 -67.92220 39800 ft 377 kts 250°
2026-05-07 13:38 43.28344 -67.98902 39803 ft 378 kts 250°
2026-05-07 13:38 43.26408 -68.05564 39800 ft 378 kts 250°
2026-05-07 13:39 43.24457 -68.12256 39803 ft 378 kts 250°
2026-05-07 13:39 43.22508 -68.18924 39803 ft 377 kts 250°
2026-05-07 13:40 43.20540 -68.25640 39807 ft 377 kts 250°
2026-05-07 13:40 43.18586 -68.32294 39809 ft 377 kts 250°
2026-05-07 13:41 43.16618 -68.38973 39814 ft 377 kts 250°
2026-05-07 13:41 43.14660 -68.45606 39804 ft 377 kts 250°
2026-05-07 13:42 43.12762 -68.52016 39811 ft 377 kts 250°
2026-05-07 13:42 43.10792 -68.58651 39816 ft 377 kts 250°
2026-05-07 13:43 43.08816 -68.65292 39820 ft 376 kts 250°
2026-05-07 13:43 43.06836 -68.71929 39810 ft 376 kts 250°
2026-05-07 13:44 43.04852 -68.78559 39812 ft 376 kts 250°
2026-05-07 13:44 43.02881 -68.85132 39824 ft 376 kts 250°
2026-05-07 13:45 43.00892 -68.91748 39823 ft 376 kts 250°
2026-05-07 13:45 42.98900 -68.98356 39825 ft 375 kts 250°
2026-05-07 13:46 42.96908 -69.04945 39816 ft 375 kts 250°
2026-05-07 13:46 42.94920 -69.11508 39821 ft 375 kts 250°
2026-05-07 13:47 42.92916 -69.18105 39832 ft 375 kts 250°
2026-05-07 13:47 42.90929 -69.24630 39821 ft 374 kts 250°
2026-05-07 13:48 42.88927 -69.31188 39826 ft 374 kts 250°
2026-05-07 13:48 42.86925 -69.37730 39825 ft 373 kts 250°
2026-05-07 13:49 42.84920 -69.44264 39831 ft 373 kts 250°
2026-05-07 13:49 42.82913 -69.50790 39832 ft 373 kts 250°
2026-05-07 13:50 42.80901 -69.57314 39834 ft 373 kts 250°
2026-05-07 13:50 42.78906 -69.63767 39828 ft 372 kts 250°
2026-05-07 13:51 42.76894 -69.70261 39833 ft 372 kts 250°
2026-05-07 13:51 42.74880 -69.76744 39837 ft 371 kts 250°
2026-05-07 13:52 42.72867 -69.83208 39837 ft 371 kts 250°
2026-05-07 13:52 42.71191 -69.88577 39839 ft 371 kts 250°
2026-05-07 13:53 42.68842 -69.96086 39839 ft 371 kts 250°
2026-05-07 13:53 42.66821 -70.02526 39841 ft 370 kts 250°
2026-05-07 13:54 42.65131 -70.07873 39842 ft 370 kts 250°
2026-05-07 13:54 42.63089 -70.14299 39848 ft 370 kts 249°
2026-05-07 13:55 42.61043 -70.20723 39845 ft 370 kts 249°
2026-05-07 13:55 42.59008 -70.27097 39844 ft 370 kts 249°
2026-05-07 13:56 42.56960 -70.33492 39843 ft 369 kts 249°
2026-05-07 13:56 42.54908 -70.39887 39844 ft 369 kts 249°
2026-05-07 13:57 42.52857 -70.46264 39842 ft 369 kts 249°
2026-05-07 13:57 42.50802 -70.52639 39847 ft 369 kts 249°
2026-05-07 13:58 42.48744 -70.59007 39847 ft 368 kts 249°
2026-05-07 13:58 42.46691 -70.65356 39851 ft 368 kts 249°
2026-05-07 13:59 42.44644 -70.71671 39851 ft 368 kts 249°
2026-05-07 13:59 42.42586 -70.78004 39857 ft 367 kts 249°
2026-05-07 14:00 42.40527 -70.84325 39859 ft 367 kts 249°
2026-05-07 14:00 42.38469 -70.90630 39862 ft 366 kts 249°
2026-05-07 14:01 42.36407 -70.96941 39859 ft 366 kts 249°
2026-05-07 14:01 42.34677 -71.03392 39852 ft 364 kts 253°
2026-05-07 14:02 42.33132 -71.09866 39856 ft 363 kts 254°
2026-05-07 14:02 42.31607 -71.16363 39850 ft 363 kts 254°
2026-05-07 14:03 42.30071 -71.22854 39860 ft 362 kts 253°
2026-05-07 14:03 42.28521 -71.29342 39865 ft 362 kts 253°
2026-05-07 14:04 42.26977 -71.35774 39862 ft 362 kts 253°
2026-05-07 14:04 42.25424 -71.42234 39861 ft 361 kts 253°
2026-05-07 14:05 42.23869 -71.48692 39865 ft 361 kts 253°
2026-05-07 14:05 42.22313 -71.55137 39862 ft 361 kts 253°
2026-05-07 14:06 42.20766 -71.61522 39865 ft 360 kts 253°
2026-05-07 14:06 42.19205 -71.67943 39866 ft 360 kts 253°
2026-05-07 14:07 42.17639 -71.74364 39864 ft 360 kts 253°
2026-05-07 14:07 42.16070 -71.80781 39876 ft 360 kts 253°
2026-05-07 14:08 42.14507 -71.87160 39874 ft 361 kts 253°
2026-05-07 14:08 42.12929 -71.93584 39874 ft 360 kts 253°
2026-05-07 14:09 42.11349 -71.99996 39877 ft 360 kts 253°
2026-05-07 14:09 42.09763 -72.06412 39869 ft 360 kts 253°
2026-05-07 14:10 42.08176 -72.12818 39876 ft 361 kts 253°
2026-05-07 14:10 42.06584 -72.19223 39872 ft 361 kts 253°
2026-05-07 14:11 42.04999 -72.25586 39875 ft 361 kts 253°
2026-05-07 14:11 42.03400 -72.31984 39876 ft 360 kts 253°
2026-05-07 14:12 42.01791 -72.38402 39874 ft 360 kts 253°
2026-05-07 14:12 42.00194 -72.44757 39902 ft 360 kts 253°
2026-05-07 14:13 41.98588 -72.51135 39905 ft 360 kts 253°
2026-05-07 14:13 41.96984 -72.57488 39909 ft 360 kts 253°
2026-05-07 14:14 41.95321 -72.63823 39913 ft 361 kts 250°
2026-05-07 14:14 41.92962 -72.69825 39901 ft 366 kts 241°
2026-05-07 14:15 41.89680 -72.75099 39913 ft 372 kts 234°
2026-05-07 14:15 41.86042 -72.80050 39902 ft 373 kts 233°
2026-05-07 14:16 41.82346 -72.84980 39905 ft 372 kts 233°
2026-05-07 14:16 41.78696 -72.89897 39903 ft 371 kts 233°
2026-05-07 14:17 41.75099 -72.94786 39909 ft 370 kts 234°
2026-05-07 14:17 41.71494 -72.99699 39918 ft 369 kts 233°
2026-05-07 14:18 41.67887 -73.04591 39923 ft 369 kts 233°
2026-05-07 14:18 41.64271 -73.09483 39925 ft 369 kts 233°
2026-05-07 14:19 41.60659 -73.14362 39925 ft 368 kts 233°
2026-05-07 14:19 41.57068 -73.19209 39922 ft 367 kts 233°
2026-05-07 14:20 41.53471 -73.24044 39921 ft 366 kts 233°
2026-05-07 14:20 41.49895 -73.28856 39924 ft 366 kts 234°
2026-05-07 14:21 41.46336 -73.33664 39927 ft 365 kts 234°
2026-05-07 14:21 41.42795 -73.38484 39932 ft 364 kts 234°
2026-05-07 14:22 41.39247 -73.43317 39933 ft 364 kts 234°
2026-05-07 14:22 41.35726 -73.48121 39928 ft 363 kts 234°
2026-05-07 14:23 41.32194 -73.52926 39930 ft 362 kts 234°
2026-05-07 14:23 41.28704 -73.57719 39930 ft 360 kts 236°
2026-05-07 14:24 41.25489 -73.62804 39929 ft 357 kts 238°
2026-05-07 14:24 41.22379 -73.67930 39921 ft 356 kts 238°
2026-05-07 14:25 41.19282 -73.73060 39920 ft 356 kts 238°
2026-05-07 14:25 41.16190 -73.78148 39924 ft 355 kts 238°
2026-05-07 14:26 41.13106 -73.83260 39920 ft 354 kts 239°
2026-05-07 14:26 41.10058 -73.88385 39923 ft 354 kts 239°
2026-05-07 14:27 41.07015 -73.93522 39936 ft 354 kts 239°
2026-05-07 14:27 41.03942 -73.98647 39926 ft 354 kts 238°
2026-05-07 14:28 41.00871 -74.03732 39924 ft 354 kts 238°
2026-05-07 14:28 40.97818 -74.08808 39937 ft 354 kts 238°
2026-05-07 14:29 40.94741 -74.13934 39933 ft 354 kts 238°
2026-05-07 14:29 40.91691 -74.19013 39952 ft 353 kts 238°
2026-05-07 14:30 40.88637 -74.24091 39950 ft 353 kts 238°
2026-05-07 14:30 40.85587 -74.29152 39949 ft 353 kts 238°
2026-05-07 14:31 40.82517 -74.34238 39962 ft 353 kts 238°
2026-05-07 14:31 40.79472 -74.39275 39960 ft 352 kts 238°
2026-05-07 14:32 40.76410 -74.44330 39960 ft 352 kts 238°
2026-05-07 14:32 40.73349 -74.49377 39961 ft 352 kts 238°
2026-05-07 14:33 40.70268 -74.54445 39942 ft 352 kts 238°
2026-05-07 14:33 40.67215 -74.59461 39942 ft 352 kts 238°
2026-05-07 14:34 40.64135 -74.64513 39940 ft 352 kts 238°
2026-05-07 14:34 40.61074 -74.69526 39941 ft 352 kts 238°
2026-05-07 14:35 40.57983 -74.74534 39942 ft 353 kts 237°
2026-05-07 14:35 40.54715 -74.79376 39940 ft 355 kts 236°
2026-05-07 14:36 40.51364 -74.84114 39940 ft 355 kts 235°
2026-05-07 14:36 40.47976 -74.88835 39952 ft 356 kts 235°
2026-05-07 14:37 40.44590 -74.93562 39955 ft 356 kts 235°
2026-05-07 14:37 40.39507 -75.00696 39958 ft 355 kts 235°
2026-05-07 14:38 40.36136 -75.05442 39951 ft 355 kts 235°
2026-05-07 14:38 40.32776 -75.10165 39959 ft 355 kts 235°
2026-05-07 14:39 40.29397 -75.14901 39957 ft 355 kts 235°
2026-05-07 14:39 40.26033 -75.19607 39955 ft 355 kts 235°
2026-05-07 14:40 40.22641 -75.24344 39969 ft 355 kts 235°
2026-05-07 14:40 40.19273 -75.29040 39971 ft 355 kts 235°
2026-05-07 14:41 40.15875 -75.33770 39972 ft 355 kts 235°
2026-05-07 14:41 40.12506 -75.38454 39971 ft 356 kts 235°
2026-05-07 14:42 40.09672 -75.42389 39970 ft 356 kts 235°
2026-05-07 14:42 40.06288 -75.47079 39979 ft 356 kts 235°
2026-05-07 14:43 40.02881 -75.51794 39979 ft 356 kts 235°
2026-05-07 14:43 39.99490 -75.56480 39978 ft 356 kts 235°
2026-05-07 14:44 39.96089 -75.61172 39978 ft 356 kts 235°
2026-05-07 14:44 39.92690 -75.65856 39979 ft 356 kts 235°
2026-05-07 14:45 39.89426 -75.70686 39976 ft 353 kts 237°
2026-05-07 14:45 39.86343 -75.75617 39971 ft 352 kts 238°
2026-05-07 14:46 39.83263 -75.80603 39976 ft 353 kts 238°
2026-05-07 14:46 39.80187 -75.85539 39965 ft 353 kts 237°
2026-05-07 14:47 39.77068 -75.90511 39971 ft 353 kts 237°
2026-05-07 14:47 39.73971 -75.95435 39972 ft 353 kts 237°
2026-05-07 14:48 39.70862 -76.00370 39979 ft 353 kts 237°
2026-05-07 14:48 39.67757 -76.05293 39982 ft 354 kts 237°
2026-05-07 14:49 39.64637 -76.10232 39983 ft 354 kts 237°
2026-05-07 14:49 39.61495 -76.15199 39985 ft 354 kts 237°
2026-05-07 14:50 39.58356 -76.20108 39986 ft 354 kts 237°
2026-05-07 14:50 39.55189 -76.24980 39985 ft 355 kts 237°
2026-05-07 14:51 39.52007 -76.29860 39986 ft 355 kts 237°
2026-05-07 14:51 39.48813 -76.34756 39996 ft 355 kts 237°
2026-05-07 14:52 39.45577 -76.39610 39980 ft 357 kts 235°
2026-05-07 14:52 39.42155 -76.44267 39996 ft 360 kts 234°
2026-05-07 14:53 39.38638 -76.48864 39994 ft 360 kts 234°
2026-05-07 14:53 39.35087 -76.53473 39997 ft 361 kts 234°
2026-05-07 14:54 39.31551 -76.58073 39995 ft 361 kts 234°
2026-05-07 14:54 39.28022 -76.62669 39981 ft 361 kts 234°
2026-05-07 14:55 39.24489 -76.67267 39976 ft 361 kts 234°
2026-05-07 14:55 39.20949 -76.71867 39980 ft 362 kts 234°
2026-05-07 14:56 39.17392 -76.76479 39980 ft 362 kts 234°
2026-05-07 14:56 39.13853 -76.81060 40011 ft 362 kts 234°
2026-05-07 14:57 39.10266 -76.85698 40014 ft 362 kts 234°
2026-05-07 14:57 39.06732 -76.90261 40000 ft 363 kts 234°
2026-05-07 14:58 39.03160 -76.94866 39993 ft 363 kts 233°
2026-05-07 14:58 38.99590 -76.99464 40000 ft 363 kts 233°
2026-05-07 14:59 38.96031 -77.04044 40004 ft 363 kts 233°
2026-05-07 14:59 38.92458 -77.08639 39981 ft 363 kts 233°
2026-05-07 15:00 38.88886 -77.13224 39978 ft 364 kts 233°
2026-05-07 15:00 38.85306 -77.17807 39980 ft 364 kts 233°
2026-05-07 15:01 38.81717 -77.22396 39963 ft 365 kts 233°
2026-05-07 15:01 38.78119 -77.26995 39963 ft 364 kts 233°
2026-05-07 15:02 38.74548 -77.31551 39964 ft 365 kts 233°
2026-05-07 15:02 38.70853 -77.36084 39991 ft 367 kts 232°
2026-05-07 15:03 38.67081 -77.40441 39988 ft 368 kts 231°
2026-05-07 15:03 38.63266 -77.44802 39989 ft 368 kts 231°
2026-05-07 15:04 38.59456 -77.49175 39988 ft 368 kts 231°
2026-05-07 15:04 38.55659 -77.53544 39992 ft 368 kts 231°
2026-05-07 15:05 38.51851 -77.57925 39988 ft 369 kts 231°
2026-05-07 15:05 38.48039 -77.62303 39989 ft 369 kts 231°
2026-05-07 15:06 38.44209 -77.66695 39993 ft 369 kts 231°
2026-05-07 15:06 38.40403 -77.71052 39992 ft 369 kts 231°
2026-05-07 15:07 38.36568 -77.75437 39989 ft 369 kts 231°
2026-05-07 15:07 38.32739 -77.79808 39989 ft 370 kts 231°
2026-05-07 15:08 38.28894 -77.84190 39988 ft 370 kts 231°
2026-05-07 15:08 38.25082 -77.88528 39981 ft 370 kts 231°
2026-05-07 15:09 38.21221 -77.92915 39978 ft 370 kts 231°
2026-05-07 15:09 38.17399 -77.97252 39978 ft 371 kts 231°
2026-05-07 15:10 38.13549 -78.01616 39975 ft 371 kts 231°
2026-05-07 15:10 38.09693 -78.05977 39967 ft 371 kts 231°
2026-05-07 15:11 38.05843 -78.10326 39980 ft 372 kts 231°
2026-05-07 15:11 38.01979 -78.14681 39965 ft 372 kts 231°
2026-05-07 15:12 37.97914 -78.18823 39981 ft 377 kts 228°
2026-05-07 15:12 37.93694 -78.22801 39982 ft 378 kts 227°
2026-05-07 15:13 37.89484 -78.26751 39978 ft 377 kts 227°
2026-05-07 15:13 37.85283 -78.30730 39970 ft 377 kts 227°
2026-05-07 15:14 37.81090 -78.34719 39971 ft 377 kts 227°
2026-05-07 15:14 37.76897 -78.38707 39967 ft 377 kts 228°
2026-05-07 15:15 37.72717 -78.42676 39970 ft 376 kts 227°
2026-05-07 15:15 37.68542 -78.46631 39964 ft 376 kts 227°
2026-05-07 15:16 37.64345 -78.50603 39965 ft 375 kts 228°
2026-05-07 15:16 37.60168 -78.54552 39960 ft 375 kts 228°
2026-05-07 15:17 37.55994 -78.58493 39957 ft 375 kts 227°
2026-05-07 15:17 37.51797 -78.62446 39956 ft 375 kts 227°
2026-05-07 15:18 37.47645 -78.66351 39955 ft 375 kts 227°
2026-05-07 15:18 37.43452 -78.70290 39958 ft 375 kts 227°
2026-05-07 15:19 37.39263 -78.74220 39953 ft 375 kts 228°
2026-05-07 15:19 37.35107 -78.78115 39954 ft 375 kts 227°
2026-05-07 15:20 37.30905 -78.82046 39950 ft 375 kts 227°
2026-05-07 15:20 37.26724 -78.85951 39955 ft 375 kts 227°
2026-05-07 15:21 37.22547 -78.89849 39952 ft 375 kts 227°
2026-05-07 15:21 37.18364 -78.93747 39951 ft 375 kts 227°
2026-05-07 15:22 37.14159 -78.97660 39948 ft 375 kts 227°
2026-05-07 15:22 37.09970 -79.01551 39945 ft 375 kts 227°
2026-05-07 15:23 37.05770 -79.05446 39949 ft 376 kts 227°
2026-05-07 15:23 37.01564 -79.09342 39934 ft 376 kts 227°
2026-05-07 15:24 36.97385 -79.13208 39930 ft 376 kts 227°
2026-05-07 15:24 36.93158 -79.17114 39925 ft 376 kts 227°
2026-05-07 15:25 36.88959 -79.20988 39927 ft 376 kts 227°
2026-05-07 15:25 36.84746 -79.24869 39929 ft 377 kts 227°
2026-05-07 15:26 36.80515 -79.28760 39932 ft 377 kts 227°
2026-05-07 15:26 36.76310 -79.32624 39935 ft 377 kts 227°
2026-05-07 15:27 36.72076 -79.36509 39942 ft 377 kts 227°
2026-05-07 15:27 36.67854 -79.40376 39945 ft 377 kts 227°
2026-05-07 15:28 36.63640 -79.44229 39950 ft 377 kts 227°
2026-05-07 15:28 36.59423 -79.48081 39947 ft 377 kts 227°
2026-05-07 15:29 36.55174 -79.51958 39943 ft 377 kts 227°
2026-05-07 15:29 36.50952 -79.55805 39929 ft 377 kts 227°
2026-05-07 15:30 36.46706 -79.59668 39918 ft 378 kts 227°
2026-05-07 15:30 36.42479 -79.63509 39920 ft 378 kts 227°
2026-05-07 15:31 36.38923 -79.66737 39923 ft 378 kts 227°
2026-05-07 15:31 36.34679 -79.70583 39919 ft 379 kts 227°
2026-05-07 15:32 36.30433 -79.74427 39922 ft 379 kts 227°
2026-05-07 15:32 36.26177 -79.78273 39920 ft 380 kts 227°
2026-05-07 15:33 36.21877 -79.82153 39910 ft 380 kts 227°
2026-05-07 15:33 36.17631 -79.85978 39914 ft 381 kts 227°
2026-05-07 15:34 36.13325 -79.89853 39912 ft 381 kts 227°
2026-05-07 15:34 36.09201 -79.93559 39913 ft 381 kts 227°
2026-05-07 15:35 36.05189 -79.97668 39913 ft 371 kts 234°
2026-05-07 15:35 36.02033 -80.02543 39912 ft 362 kts 243°
2026-05-07 15:36 35.99340 -80.07786 39906 ft 360 kts 244°
2026-05-07 15:36 35.96728 -80.13070 39899 ft 361 kts 244°
2026-05-07 15:37 35.94092 -80.18344 39900 ft 361 kts 244°
2026-05-07 15:37 35.91443 -80.23577 39907 ft 362 kts 244°
2026-05-07 15:38 35.88765 -80.28836 39911 ft 362 kts 243°
2026-05-07 15:38 35.86081 -80.34100 39912 ft 362 kts 243°
2026-05-07 15:39 35.83402 -80.39351 39913 ft 362 kts 243°
2026-05-07 15:39 35.80710 -80.44621 39909 ft 363 kts 243°
2026-05-07 15:40 35.78032 -80.49856 39907 ft 364 kts 243°
2026-05-07 15:40 35.75328 -80.55133 39904 ft 364 kts 243°
2026-05-07 15:41 35.72619 -80.60410 39904 ft 365 kts 243°
2026-05-07 15:41 35.69898 -80.65704 39900 ft 366 kts 243°
2026-05-07 15:42 35.67171 -80.71002 39894 ft 367 kts 243°
2026-05-07 15:42 35.64452 -80.76276 39889 ft 367 kts 243°
2026-05-07 15:43 35.61706 -80.81592 39893 ft 368 kts 243°
2026-05-07 15:43 35.58959 -80.86902 39891 ft 368 kts 243°
2026-05-07 15:44 35.56205 -80.92219 39889 ft 368 kts 243°
2026-05-07 15:44 35.53468 -80.97496 39874 ft 368 kts 243°
2026-05-07 15:45 35.50706 -81.02811 39878 ft 369 kts 243°
2026-05-07 15:45 35.47945 -81.08120 39876 ft 369 kts 243°
2026-05-07 15:46 35.43786 -81.16100 39894 ft 370 kts 243°
2026-05-07 15:47 35.41003 -81.21425 39896 ft 370 kts 243°
2026-05-07 15:47 35.38240 -81.26706 39894 ft 371 kts 243°
2026-05-07 15:48 35.35455 -81.32020 39889 ft 370 kts 243°
2026-05-07 15:48 35.32663 -81.37340 39904 ft 371 kts 243°
2026-05-07 15:49 35.29873 -81.42650 39916 ft 371 kts 243°
2026-05-07 15:49 35.27078 -81.47961 39922 ft 371 kts 243°
2026-05-07 15:50 35.24297 -81.53237 39924 ft 371 kts 243°
2026-05-07 15:50 35.21477 -81.58578 39922 ft 371 kts 243°
2026-05-07 15:51 35.18682 -81.63865 39923 ft 372 kts 243°
2026-05-07 15:51 35.15867 -81.69182 39920 ft 372 kts 243°
2026-05-07 15:52 35.13061 -81.74472 39913 ft 372 kts 243°
2026-05-07 15:52 35.10247 -81.79769 39906 ft 373 kts 243°
2026-05-07 15:53 35.07416 -81.85090 39922 ft 373 kts 243°
2026-05-07 15:53 35.04597 -81.90381 39926 ft 373 kts 242°
2026-05-07 15:54 35.01714 -81.95653 39933 ft 374 kts 242°
2026-05-07 15:54 34.98730 -82.00859 39934 ft 375 kts 241°
2026-05-07 15:55 34.95711 -82.06046 39934 ft 375 kts 241°
2026-05-07 15:55 34.92710 -82.11198 39914 ft 375 kts 241°
2026-05-07 15:56 34.89685 -82.16397 39912 ft 376 kts 241°
2026-05-07 15:56 34.86660 -82.21593 39916 ft 376 kts 241°
2026-05-07 15:57 34.83632 -82.26787 39910 ft 377 kts 241°
2026-05-07 15:57 34.80593 -82.31993 39933 ft 377 kts 240°
2026-05-07 15:58 34.77550 -82.37194 39931 ft 377 kts 240°
2026-05-07 15:58 34.74523 -82.42362 39936 ft 377 kts 240°
2026-05-07 15:59 34.71464 -82.47575 39931 ft 377 kts 240°
2026-05-07 15:59 34.68413 -82.52770 39930 ft 378 kts 240°
2026-05-07 16:00 34.65375 -82.57935 39919 ft 378 kts 240°
2026-05-07 16:00 34.62314 -82.63133 39923 ft 378 kts 240°
2026-05-07 16:01 34.59254 -82.68320 39934 ft 378 kts 240°
2026-05-07 16:01 34.56174 -82.73534 39944 ft 379 kts 240°
2026-05-07 16:02 34.53116 -82.78702 39941 ft 379 kts 240°
2026-05-07 16:02 34.50033 -82.83902 39938 ft 380 kts 240°
2026-05-07 16:03 34.46920 -82.89088 39934 ft 380 kts 239°
2026-05-07 16:03 34.43810 -82.94278 39931 ft 380 kts 240°
2026-05-07 16:04 34.40720 -82.99460 39923 ft 381 kts 240°
2026-05-07 16:04 34.37614 -83.04672 39921 ft 382 kts 240°
2026-05-07 16:05 34.34501 -83.09889 39925 ft 382 kts 240°
2026-05-07 16:05 34.31380 -83.15112 39928 ft 383 kts 240°
2026-05-07 16:06 34.28266 -83.20314 39932 ft 384 kts 240°
2026-05-07 16:06 34.25114 -83.25574 39938 ft 384 kts 240°
2026-05-07 16:07 34.21983 -83.30791 39943 ft 385 kts 240°
2026-05-07 16:07 34.18835 -83.36027 39948 ft 386 kts 240°
2026-05-07 16:08 34.15688 -83.41256 39952 ft 386 kts 240°
2026-05-07 16:08 34.12528 -83.46496 39951 ft 386 kts 240°
2026-05-07 16:09 34.09356 -83.51747 39951 ft 386 kts 240°
2026-05-07 16:09 34.06189 -83.56984 39952 ft 387 kts 240°
2026-05-07 16:10 34.03011 -83.62231 39970 ft 387 kts 240°
2026-05-07 16:10 33.99844 -83.67452 39971 ft 387 kts 240°
2026-05-07 16:11 33.96671 -83.72679 39970 ft 388 kts 240°
2026-05-07 16:11 33.94375 -83.76455 39969 ft 388 kts 240°
2026-05-07 16:12 33.91185 -83.81694 39970 ft 388 kts 240°
2026-05-07 16:12 33.87986 -83.86939 39969 ft 389 kts 240°
2026-05-07 16:13 33.84781 -83.92186 39969 ft 389 kts 240°
2026-05-07 16:13 33.81573 -83.97433 39969 ft 390 kts 240°
2026-05-07 16:14 33.78382 -84.02645 39974 ft 390 kts 240°
2026-05-07 16:14 33.75155 -84.07908 39975 ft 390 kts 240°
2026-05-07 16:15 33.71927 -84.13163 39968 ft 391 kts 240°
2026-05-07 16:15 33.68689 -84.18429 39963 ft 391 kts 240°
2026-05-07 16:16 33.65449 -84.23690 39981 ft 392 kts 240°
2026-05-07 16:16 33.62207 -84.28945 39981 ft 392 kts 240°
2026-05-07 16:17 33.58954 -84.34212 39980 ft 393 kts 240°
2026-05-07 16:17 33.55712 -84.39455 39979 ft 393 kts 240°
2026-05-07 16:18 33.52448 -84.44723 39973 ft 393 kts 240°
2026-05-07 16:18 33.49182 -84.49987 39979 ft 394 kts 240°
2026-05-07 16:19 33.45904 -84.55263 39986 ft 394 kts 240°
2026-05-07 16:19 33.42624 -84.60536 39989 ft 394 kts 240°
2026-05-07 16:20 33.39359 -84.65776 39987 ft 395 kts 239°
2026-05-07 16:20 33.36069 -84.71049 39997 ft 395 kts 239°
2026-05-07 16:21 33.33326 -84.75440 39998 ft 396 kts 239°
2026-05-07 16:21 33.30022 -84.80722 39996 ft 396 kts 239°
2026-05-07 16:22 33.26712 -84.86006 39997 ft 397 kts 239°
2026-05-07 16:22 33.23399 -84.91286 39990 ft 397 kts 239°
2026-05-07 16:23 33.20079 -84.96570 39982 ft 398 kts 239°
2026-05-07 16:23 33.16776 -85.01820 39987 ft 398 kts 239°
2026-05-07 16:24 33.13451 -85.07099 39994 ft 398 kts 239°
2026-05-07 16:24 33.10116 -85.12385 39995 ft 399 kts 239°
2026-05-07 16:25 33.06776 -85.17671 39994 ft 399 kts 239°
2026-05-07 16:25 33.03345 -85.22904 39993 ft 402 kts 237°
2026-05-07 16:26 32.99679 -85.27976 39986 ft 404 kts 236°
2026-05-07 16:26 32.95971 -85.32969 39979 ft 405 kts 236°
2026-05-07 16:27 32.92242 -85.38005 39971 ft 405 kts 236°
2026-05-07 16:27 32.88534 -85.43036 39979 ft 405 kts 236°
2026-05-07 16:28 32.84821 -85.48080 39986 ft 405 kts 236°
2026-05-07 16:28 32.81111 -85.53114 39992 ft 404 kts 236°
2026-05-07 16:29 32.77392 -85.58152 39995 ft 404 kts 236°
2026-05-07 16:29 32.73683 -85.63170 39989 ft 405 kts 236°
2026-05-07 16:30 32.69977 -85.68174 39988 ft 405 kts 236°
2026-05-07 16:30 32.66253 -85.73198 39986 ft 405 kts 236°
2026-05-07 16:31 32.62529 -85.78213 39978 ft 405 kts 236°
2026-05-07 16:31 32.58822 -85.83200 39977 ft 405 kts 236°
2026-05-07 16:32 32.55090 -85.88212 39967 ft 405 kts 236°
2026-05-07 16:32 32.51359 -85.93219 39967 ft 405 kts 236°
2026-05-07 16:33 32.47623 -85.98224 39983 ft 405 kts 236°
2026-05-07 16:33 32.43891 -86.03214 39983 ft 405 kts 236°
2026-05-07 16:34 32.40146 -86.08217 39990 ft 405 kts 236°
2026-05-07 16:34 32.36427 -86.13182 39988 ft 405 kts 236°
2026-05-07 16:35 32.32685 -86.18168 39996 ft 405 kts 236°
2026-05-07 16:35 32.28972 -86.23104 40017 ft 400 kts 235°
2026-05-07 16:36 32.25262 -86.28031 40018 ft 398 kts 235°
2026-05-07 16:36 32.21618 -86.32898 40017 ft 398 kts 235°
2026-05-07 16:37 32.18032 -86.37876 40021 ft 398 kts 236°
2026-05-07 16:37 32.14479 -86.42878 40009 ft 398 kts 236°
2026-05-07 16:38 32.10904 -86.47892 39991 ft 399 kts 236°
2026-05-07 16:38 32.07326 -86.52883 39966 ft 399 kts 236°
2026-05-07 16:39 32.03724 -86.57895 39979 ft 400 kts 236°
2026-05-07 16:39 32.00133 -86.62886 39990 ft 400 kts 236°
2026-05-07 16:40 31.96530 -86.67885 40003 ft 401 kts 236°
2026-05-07 16:40 31.92933 -86.72873 40004 ft 402 kts 236°
2026-05-07 16:41 31.89305 -86.77895 39995 ft 402 kts 236°
2026-05-07 16:41 31.85676 -86.82912 39978 ft 403 kts 236°
2026-05-07 16:42 31.82043 -86.87929 39957 ft 403 kts 235°
2026-05-07 16:42 31.78394 -86.92961 39936 ft 404 kts 235°
2026-05-07 16:43 31.74736 -86.97998 39918 ft 404 kts 235°
2026-05-07 16:43 31.71114 -87.02979 39938 ft 404 kts 235°
2026-05-07 16:44 31.67433 -87.08034 39963 ft 405 kts 235°
2026-05-07 16:44 31.63781 -87.13043 39977 ft 405 kts 235°
2026-05-07 16:45 31.60124 -87.18052 39981 ft 406 kts 235°
2026-05-07 16:45 31.56449 -87.23080 39985 ft 406 kts 235°
2026-05-07 16:46 31.52766 -87.28112 39986 ft 407 kts 235°
2026-05-07 16:46 31.49078 -87.33144 39975 ft 408 kts 235°
2026-05-07 16:47 31.45365 -87.38202 39965 ft 408 kts 235°
2026-05-07 16:47 31.41666 -87.43235 39955 ft 408 kts 234°
2026-05-07 16:48 31.37965 -87.48264 39942 ft 408 kts 234°
2026-05-07 16:48 31.34265 -87.53286 39955 ft 409 kts 234°
2026-05-07 16:49 31.30540 -87.58333 39956 ft 409 kts 234°
2026-05-07 16:49 31.26826 -87.63360 39958 ft 409 kts 234°
2026-05-07 16:50 31.23101 -87.68396 39958 ft 410 kts 234°
2026-05-07 16:50 31.19365 -87.73440 39975 ft 410 kts 234°
2026-05-07 16:51 31.15644 -87.78457 39978 ft 410 kts 234°
2026-05-07 16:51 31.11898 -87.83502 39979 ft 411 kts 234°
2026-05-07 16:52 31.08158 -87.88530 39978 ft 411 kts 234°
2026-05-07 16:52 31.04413 -87.93560 39981 ft 411 kts 234°
2026-05-07 16:53 31.00657 -87.98596 39988 ft 412 kts 234°
2026-05-07 16:53 30.96890 -88.03642 39997 ft 412 kts 234°
2026-05-07 16:54 30.93134 -88.08667 40009 ft 412 kts 234°
2026-05-07 16:54 30.89371 -88.13692 40021 ft 413 kts 234°
2026-05-07 16:55 30.85603 -88.18719 40029 ft 413 kts 234°
2026-05-07 16:55 30.81830 -88.23747 40039 ft 413 kts 234°
2026-05-07 16:56 30.78036 -88.28796 40044 ft 413 kts 234°
2026-05-07 16:56 30.72638 -88.36227 40042 ft 411 kts 238°
2026-05-07 16:57 30.69509 -88.41735 40037 ft 409 kts 241°
2026-05-07 16:57 30.66523 -88.47364 40032 ft 409 kts 242°
2026-05-07 16:58 30.63575 -88.53020 40028 ft 409 kts 242°
2026-05-07 16:58 30.60619 -88.58681 40031 ft 409 kts 242°
2026-05-07 16:59 30.57682 -88.64282 40031 ft 409 kts 242°
2026-05-07 16:59 30.54717 -88.69919 40029 ft 409 kts 242°
2026-05-07 17:00 30.51753 -88.75546 40012 ft 409 kts 242°
2026-05-07 17:00 30.48777 -88.81186 40008 ft 409 kts 242°
2026-05-07 17:01 30.45799 -88.86824 40006 ft 410 kts 241°
2026-05-07 17:01 30.42817 -88.92462 40006 ft 410 kts 241°
2026-05-07 17:02 30.39832 -88.98097 40009 ft 410 kts 241°
2026-05-07 17:02 30.36839 -89.03738 40024 ft 410 kts 241°
2026-05-07 17:03 30.33868 -89.09330 40026 ft 410 kts 241°
2026-05-07 17:03 30.30865 -89.14975 40023 ft 411 kts 241°
2026-05-07 17:04 30.27866 -89.20605 40024 ft 411 kts 241°
2026-05-07 17:04 30.24860 -89.26239 40020 ft 412 kts 241°
2026-05-07 17:05 30.21852 -89.31869 40019 ft 412 kts 241°
2026-05-07 17:05 30.18845 -89.37488 40022 ft 412 kts 241°
2026-05-07 17:06 30.15831 -89.43113 40023 ft 413 kts 241°
2026-05-07 17:06 30.12804 -89.48755 40023 ft 413 kts 241°
2026-05-07 17:07 30.09783 -89.54376 40022 ft 413 kts 241°
2026-05-07 17:07 30.06752 -89.60011 40023 ft 413 kts 241°
2026-05-07 17:08 30.03707 -89.65661 40027 ft 414 kts 241°
2026-05-07 17:08 30.00662 -89.71306 40035 ft 414 kts 241°
2026-05-07 17:09 29.97631 -89.76915 40036 ft 414 kts 241°
2026-05-07 17:09 29.95082 -89.81627 40038 ft 415 kts 241°
2026-05-07 17:10 29.92016 -89.87285 40030 ft 415 kts 241°
2026-05-07 17:10 29.88957 -89.92925 40033 ft 415 kts 241°
2026-05-07 17:11 29.86041 -89.98654 40037 ft 413 kts 246°
2026-05-07 17:11 29.83989 -90.04776 40036 ft 411 kts 255°
2026-05-07 17:12 29.82505 -90.11126 40035 ft 411 kts 256°
2026-05-07 17:12 29.81107 -90.17519 40034 ft 411 kts 256°
2026-05-07 17:13 29.79702 -90.23918 40033 ft 411 kts 256°
2026-05-07 17:13 29.78289 -90.30267 40039 ft 412 kts 256°
2026-05-07 17:14 29.76862 -90.36625 40037 ft 412 kts 256°
2026-05-07 17:14 29.75427 -90.43003 40040 ft 412 kts 256°
2026-05-07 17:15 29.73988 -90.49388 40042 ft 412 kts 256°
2026-05-07 17:15 29.72547 -90.55761 40045 ft 412 kts 256°
2026-05-07 17:16 29.71104 -90.62133 40041 ft 412 kts 256°
2026-05-07 17:16 29.69653 -90.68528 40044 ft 412 kts 255°
2026-05-07 17:17 29.68208 -90.74873 40046 ft 412 kts 255°
2026-05-07 17:17 29.66331 -90.81088 40037 ft 413 kts 247°
2026-05-07 17:18 29.63309 -90.86728 40038 ft 419 kts 235°
2026-05-07 17:18 29.59408 -90.91785 40039 ft 421 kts 232°
2026-05-07 17:19 29.55381 -90.96680 40043 ft 422 kts 231°
2026-05-07 17:19 29.51344 -91.01570 40036 ft 422 kts 232°
2026-05-07 17:20 29.47352 -91.06440 40031 ft 422 kts 232°
2026-05-07 17:20 29.43344 -91.11348 40036 ft 422 kts 232°
2026-05-07 17:21 29.39326 -91.16265 40035 ft 422 kts 232°
2026-05-07 17:21 29.35303 -91.21182 40033 ft 423 kts 232°
2026-05-07 17:22 29.31281 -91.26090 40034 ft 423 kts 232°
2026-05-07 17:22 29.27248 -91.31004 40037 ft 423 kts 232°
2026-05-07 17:23 29.23208 -91.35920 40032 ft 423 kts 232°
2026-05-07 17:23 29.19168 -91.40831 40033 ft 423 kts 232°
2026-05-07 17:24 29.15147 -91.45713 40033 ft 423 kts 232°
2026-05-07 17:24 29.11109 -91.50609 40032 ft 423 kts 231°
2026-05-07 17:25 29.07063 -91.55509 40034 ft 423 kts 231°
2026-05-07 17:25 29.03028 -91.60390 40035 ft 424 kts 231°
2026-05-07 17:26 28.98968 -91.65294 40032 ft 424 kts 231°
2026-05-07 17:26 28.94924 -91.70174 40034 ft 424 kts 231°
2026-05-07 17:27 28.90859 -91.75073 40033 ft 424 kts 231°
2026-05-07 17:27 28.86815 -91.79941 40046 ft 424 kts 231°
2026-05-07 17:28 28.82764 -91.84811 40041 ft 424 kts 231°
2026-05-07 17:28 28.78680 -91.89715 40037 ft 425 kts 231°
2026-05-07 17:29 28.74630 -91.94573 40030 ft 425 kts 231°
2026-05-07 17:29 28.70548 -91.99463 40025 ft 425 kts 231°
2026-05-07 17:30 28.66480 -92.04329 40027 ft 426 kts 231°
2026-05-07 17:30 28.62377 -92.09233 40026 ft 426 kts 231°
2026-05-07 17:31 28.58298 -92.14101 40033 ft 426 kts 231°
2026-05-07 17:31 28.54191 -92.18996 40027 ft 426 kts 231°
2026-05-07 17:32 28.50096 -92.23873 40029 ft 427 kts 231°
2026-05-07 17:32 28.46013 -92.28729 40024 ft 427 kts 231°
2026-05-07 17:33 28.41912 -92.33600 40022 ft 427 kts 231°
2026-05-07 17:33 28.37785 -92.38496 40020 ft 428 kts 231°
2026-05-07 17:34 28.33666 -92.43377 40022 ft 428 kts 230°
2026-05-07 17:34 28.29543 -92.48257 40017 ft 428 kts 230°
2026-05-07 17:35 28.25416 -92.53136 40017 ft 428 kts 230°
2026-05-07 17:35 28.21290 -92.58008 40016 ft 429 kts 230°
2026-05-07 17:36 28.17168 -92.62871 40014 ft 429 kts 230°
2026-05-07 17:36 28.13033 -92.67742 40016 ft 429 kts 230°
2026-05-07 17:37 28.08418 -92.72112 40015 ft 437 kts 219°
2026-05-07 17:37 28.03322 -92.75798 40014 ft 439 kts 217°
2026-05-07 17:38 27.98107 -92.79395 40013 ft 439 kts 217°
2026-05-07 17:38 27.92859 -92.82999 40010 ft 439 kts 217°
2026-05-07 17:39 27.87655 -92.86590 40009 ft 439 kts 217°
2026-05-07 17:39 27.82452 -92.90188 40010 ft 439 kts 217°
2026-05-07 17:40 27.77236 -92.93793 40009 ft 439 kts 217°
2026-05-07 17:40 27.72038 -92.97381 40010 ft 439 kts 217°
2026-05-07 17:41 27.66805 -93.00988 40006 ft 439 kts 217°
2026-05-07 17:41 27.61612 -93.04563 40003 ft 440 kts 217°
2026-05-07 17:42 27.56386 -93.08157 40010 ft 440 kts 217°
2026-05-07 17:42 27.51160 -93.11747 40001 ft 440 kts 217°
2026-05-07 17:43 27.45940 -93.15328 40000 ft 440 kts 217°
2026-05-07 17:43 27.40693 -93.18920 39994 ft 440 kts 216°
2026-05-07 17:44 27.35450 -93.22506 39998 ft 440 kts 216°
2026-05-07 17:44 27.30223 -93.26078 39996 ft 441 kts 216°
2026-05-07 17:45 27.24976 -93.29659 39990 ft 441 kts 216°
2026-05-07 17:45 27.19733 -93.33234 39991 ft 441 kts 216°
2026-05-07 17:46 27.14746 -93.36630 39983 ft 441 kts 216°
2026-05-07 17:46 27.09489 -93.40206 39996 ft 441 kts 216°
2026-05-07 17:47 27.04266 -93.43756 39991 ft 441 kts 216°
2026-05-07 17:47 26.99008 -93.47325 39989 ft 442 kts 216°
2026-05-07 17:48 26.93747 -93.50892 39987 ft 442 kts 216°
2026-05-07 17:48 26.88474 -93.54463 39984 ft 442 kts 216°
2026-05-07 17:49 26.83203 -93.58029 39982 ft 442 kts 216°
2026-05-07 17:49 26.77957 -93.61574 39985 ft 443 kts 216°
2026-05-07 17:50 26.72683 -93.65134 39982 ft 443 kts 216°
2026-05-07 17:50 26.67400 -93.68697 39980 ft 443 kts 216°
2026-05-07 17:51 26.62120 -93.72254 39981 ft 443 kts 216°
2026-05-07 17:51 26.56812 -93.75825 39982 ft 444 kts 216°
2026-05-07 17:52 26.51552 -93.79365 39979 ft 444 kts 216°
2026-05-07 17:52 26.46263 -93.82927 39980 ft 444 kts 216°
2026-05-07 17:53 26.40942 -93.86508 39973 ft 445 kts 216°
2026-05-07 17:53 26.35638 -93.90073 39976 ft 445 kts 216°
2026-05-07 17:54 26.30357 -93.93618 39973 ft 445 kts 216°
2026-05-07 17:54 26.25025 -93.97193 39978 ft 446 kts 216°
2026-05-07 17:55 26.19726 -94.00742 39975 ft 446 kts 216°
2026-05-07 17:55 26.14407 -94.04301 39971 ft 446 kts 216°
2026-05-07 17:56 26.09079 -94.07862 39969 ft 446 kts 216°
2026-05-07 17:56 26.03786 -94.11396 39965 ft 446 kts 216°
2026-05-07 17:57 25.99329 -94.14369 39964 ft 447 kts 216°
2026-05-07 17:57 25.93102 -94.18518 39964 ft 447 kts 215°
2026-05-07 17:58 25.87772 -94.22066 39964 ft 447 kts 215°
2026-05-07 17:58 25.83354 -94.25003 39959 ft 447 kts 215°
2026-05-07 17:59 25.78010 -94.28553 39961 ft 448 kts 215°
2026-05-07 17:59 25.72669 -94.32097 39960 ft 448 kts 215°
2026-05-07 18:00 25.67316 -94.35645 39959 ft 448 kts 215°
2026-05-07 18:00 25.61958 -94.39193 39958 ft 448 kts 215°
2026-05-07 18:01 25.56581 -94.42749 39958 ft 449 kts 215°
2026-05-07 18:01 25.51235 -94.46281 39953 ft 449 kts 215°
2026-05-07 18:02 25.43193 -94.51588 39950 ft 449 kts 215°
2026-05-07 18:03 25.37793 -94.55146 39952 ft 449 kts 215°
2026-05-07 18:03 25.32434 -94.58670 39953 ft 450 kts 214°
2026-05-07 18:04 25.27005 -94.62134 39948 ft 451 kts 214°
2026-05-07 18:04 25.21554 -94.65556 39947 ft 451 kts 214°
2026-05-07 18:05 25.16122 -94.68964 39946 ft 451 kts 214°
2026-05-07 18:05 25.10645 -94.72407 39948 ft 451 kts 214°
2026-05-07 18:06 25.05209 -94.75825 39951 ft 452 kts 214°
2026-05-07 18:06 24.99752 -94.79254 39948 ft 452 kts 214°
2026-05-07 18:07 24.94282 -94.82687 39945 ft 452 kts 214°
2026-05-07 18:07 24.88818 -94.86112 39947 ft 452 kts 214°
2026-05-07 18:08 24.83346 -94.89541 39945 ft 453 kts 214°
2026-05-07 18:08 24.77874 -94.92981 39944 ft 453 kts 214°
2026-05-07 18:09 24.72400 -94.96424 39944 ft 453 kts 214°
2026-05-07 18:09 24.66933 -94.99859 39941 ft 453 kts 214°
2026-05-07 18:10 24.61434 -95.03310 39943 ft 453 kts 214°
2026-05-07 18:10 24.55963 -95.06738 39941 ft 453 kts 214°
2026-05-07 18:11 24.50489 -95.10165 39942 ft 453 kts 214°
2026-05-07 18:11 24.45018 -95.13585 39937 ft 454 kts 214°
2026-05-07 18:12 24.39520 -95.17007 39935 ft 454 kts 214°
2026-05-07 18:12 24.34041 -95.20411 39936 ft 454 kts 214°
2026-05-07 18:13 24.28538 -95.23829 39935 ft 454 kts 214°
2026-05-07 18:13 24.23050 -95.27236 39933 ft 454 kts 214°
2026-05-07 18:14 24.17530 -95.30661 39934 ft 455 kts 214°
2026-05-07 18:14 24.12030 -95.34069 39933 ft 455 kts 214°
2026-05-07 18:15 24.06534 -95.37472 39933 ft 455 kts 214°
2026-05-07 18:15 24.00996 -95.40898 39926 ft 455 kts 214°
2026-05-07 18:16 23.95513 -95.44286 39926 ft 455 kts 214°
2026-05-07 18:16 23.90001 -95.47688 39927 ft 455 kts 214°
2026-05-07 18:17 23.84457 -95.51106 39925 ft 455 kts 214°
2026-05-07 18:17 23.78959 -95.54494 39925 ft 456 kts 214°
2026-05-07 18:18 23.73419 -95.57903 39926 ft 456 kts 214°
2026-05-07 18:18 23.67893 -95.61301 39922 ft 456 kts 214°
2026-05-07 18:19 23.62371 -95.64692 39923 ft 456 kts 214°
2026-05-07 18:19 23.56834 -95.68087 39921 ft 456 kts 214°
2026-05-07 18:20 23.51321 -95.71463 39920 ft 456 kts 214°
2026-05-07 18:20 23.45777 -95.74856 39919 ft 456 kts 214°
2026-05-07 18:21 23.40231 -95.78247 39918 ft 457 kts 214°
2026-05-07 18:21 23.34706 -95.81622 39915 ft 457 kts 214°
2026-05-07 18:22 23.29158 -95.85008 39913 ft 457 kts 214°
2026-05-07 18:22 23.23632 -95.88378 39915 ft 457 kts 214°
2026-05-07 18:23 23.18056 -95.91774 39915 ft 457 kts 214°
2026-05-07 18:23 23.12525 -95.95142 39911 ft 457 kts 214°
2026-05-07 18:24 23.07004 -95.98509 39906 ft 457 kts 214°
2026-05-07 18:24 23.01445 -96.01888 39899 ft 458 kts 214°
2026-05-07 18:25 22.95879 -96.05264 39916 ft 458 kts 214°
2026-05-07 18:25 22.90333 -96.08625 39906 ft 458 kts 214°
2026-05-07 18:26 22.84765 -96.11996 39906 ft 458 kts 214°
2026-05-07 18:26 22.79171 -96.15381 39896 ft 458 kts 214°
2026-05-07 18:27 22.73614 -96.18740 39901 ft 458 kts 213°
2026-05-07 18:27 22.68072 -96.22087 39901 ft 459 kts 213°
2026-05-07 18:28 22.62460 -96.25473 39898 ft 459 kts 213°
2026-05-07 18:28 22.56894 -96.28827 39894 ft 459 kts 213°
2026-05-07 18:29 22.51327 -96.32180 39894 ft 459 kts 213°
2026-05-07 18:29 22.45753 -96.35533 39893 ft 459 kts 213°
2026-05-07 18:30 22.40172 -96.38888 39892 ft 459 kts 213°
2026-05-07 18:30 22.34588 -96.42241 39886 ft 459 kts 213°
2026-05-07 18:31 22.29010 -96.45588 39891 ft 460 kts 213°
2026-05-07 18:31 22.23418 -96.48940 39885 ft 460 kts 213°
2026-05-07 18:32 22.17839 -96.52281 39888 ft 460 kts 213°
2026-05-07 18:32 22.12240 -96.55632 39879 ft 460 kts 213°
2026-05-07 18:33 22.06913 -96.58818 39887 ft 460 kts 213°
2026-05-07 18:33 22.02583 -96.61406 39876 ft 460 kts 213°
2026-05-07 18:34 21.97015 -96.64730 39884 ft 460 kts 213°
2026-05-07 18:34 21.91407 -96.68076 39875 ft 461 kts 213°
2026-05-07 18:35 21.85793 -96.71422 39875 ft 461 kts 213°
2026-05-07 18:35 21.80182 -96.74764 39872 ft 461 kts 213°
2026-05-07 18:36 21.74571 -96.78103 39870 ft 461 kts 213°
2026-05-07 18:36 21.68955 -96.81441 39872 ft 461 kts 213°
2026-05-07 18:37 21.63340 -96.84775 39872 ft 461 kts 213°
2026-05-07 18:37 21.57749 -96.88091 39865 ft 462 kts 212°
2026-05-07 18:38 21.52118 -96.91429 39865 ft 462 kts 212°
2026-05-07 18:38 21.46490 -96.94761 39866 ft 462 kts 212°
2026-05-07 18:39 21.40858 -96.98092 39870 ft 462 kts 212°
2026-05-07 18:39 21.35222 -97.01423 39863 ft 462 kts 212°
2026-05-07 18:40 21.29573 -97.04759 39863 ft 463 kts 212°
2026-05-07 18:40 21.23931 -97.08088 39860 ft 462 kts 212°
2026-05-07 18:41 21.18315 -97.11398 39860 ft 463 kts 212°
2026-05-07 18:41 21.12669 -97.14723 39861 ft 463 kts 212°
2026-05-07 18:42 21.07024 -97.18045 39855 ft 463 kts 212°
2026-05-07 18:42 21.01380 -97.21364 39857 ft 463 kts 212°
2026-05-07 18:43 20.95764 -97.24663 39854 ft 463 kts 212°
2026-05-07 18:43 20.90120 -97.27975 39858 ft 463 kts 212°
2026-05-07 18:44 20.84474 -97.31286 39857 ft 463 kts 212°
2026-05-07 18:44 20.78812 -97.34604 39861 ft 463 kts 212°
2026-05-07 18:45 20.73162 -97.37911 39864 ft 463 kts 212°
2026-05-07 18:45 20.67507 -97.41219 39869 ft 463 kts 212°
2026-05-07 18:46 20.61989 -97.44670 39868 ft 461 kts 217°
2026-05-07 18:46 20.57175 -97.49143 39871 ft 458 kts 228°
2026-05-07 18:47 20.52966 -97.54242 39871 ft 458 kts 231°
2026-05-07 18:47 20.48883 -97.59453 39863 ft 457 kts 231°
2026-05-07 18:48 20.44797 -97.64670 39866 ft 458 kts 231°
2026-05-07 18:48 20.40720 -97.69832 39869 ft 458 kts 231°
2026-05-07 18:49 20.36601 -97.75021 39879 ft 458 kts 230°
2026-05-07 18:49 20.32486 -97.80197 39712 ft 456 kts 230°
2026-05-07 18:49 20.31123 -97.81910 39365 ft 455 kts 230°
2026-05-07 18:50 20.29079 -97.84480 38803 ft 455 kts 230°
2026-05-07 18:50 20.27035 -97.87049 38189 ft 454 kts 230°
2026-05-07 18:50 20.25000 -97.89609 37602 ft 452 kts 230°
2026-05-07 18:50 20.22975 -97.92161 37041 ft 450 kts 230°
2026-05-07 18:51 20.20953 -97.94705 36467 ft 449 kts 230°
2026-05-07 18:51 20.18933 -97.97241 35891 ft 448 kts 230°
2026-05-07 18:51 20.16923 -97.99782 35291 ft 448 kts 230°
2026-05-07 18:51 20.14894 -98.02369 34673 ft 459 kts 230°
2026-05-07 18:52 20.12866 -98.04951 33972 ft 461 kts 230°
2026-05-07 18:52 20.10762 -98.07595 33151 ft 463 kts 229°
2026-05-07 18:52 20.08697 -98.10175 32430 ft 464 kts 229°
2026-05-07 18:52 20.06599 -98.12789 31686 ft 469 kts 229°
2026-05-07 18:53 20.04502 -98.15482 30918 ft 475 kts 232°
2026-05-07 18:53 20.02705 -98.18492 30346 ft 489 kts 241°
2026-05-07 18:53 20.01423 -98.21839 29825 ft 490 kts 252°
2026-05-07 18:53 20.00610 -98.25405 29605 ft 500 kts 256°
2026-05-07 18:54 19.99889 -98.29026 29425 ft 502 kts 256°
2026-05-07 18:54 19.99176 -98.32654 29228 ft 501 kts 256°
2026-05-07 18:54 19.98459 -98.36274 29031 ft 499 kts 256°
2026-05-07 18:54 19.97738 -98.39881 28836 ft 498 kts 256°
2026-05-07 18:55 19.97015 -98.43476 28644 ft 496 kts 256°
2026-05-07 18:55 19.96293 -98.47056 28446 ft 495 kts 256°
2026-05-07 18:55 19.95569 -98.50633 28250 ft 494 kts 256°
2026-05-07 18:55 19.94855 -98.54150 28064 ft 493 kts 256°
2026-05-07 18:56 19.94132 -98.57708 27870 ft 492 kts 256°
2026-05-07 18:56 19.93409 -98.61260 27676 ft 490 kts 256°
2026-05-07 18:56 19.92690 -98.64796 27481 ft 489 kts 256°
2026-05-07 18:56 19.91971 -98.68326 27302 ft 488 kts 256°
2026-05-07 18:57 19.91253 -98.71852 27149 ft 487 kts 256°
2026-05-07 18:57 19.90666 -98.75400 26994 ft 487 kts 259°
2026-05-07 18:57 19.90237 -98.78957 26335 ft 484 kts 261°
2026-05-07 18:57 19.89852 -98.82504 25741 ft 480 kts 261°
2026-05-07 18:58 19.89474 -98.86017 25207 ft 477 kts 261°
2026-05-07 18:58 19.89138 -98.89509 24676 ft 475 kts 264°
2026-05-07 18:58 19.89186 -98.93021 24140 ft 474 kts 270°
2026-05-07 18:58 19.89413 -98.96505 23547 ft 472 kts 271°
2026-05-07 18:59 19.89661 -98.99929 22953 ft 468 kts 271°
2026-05-07 18:59 19.89906 -99.03364 22391 ft 464 kts 271°
2026-05-07 18:59 19.90143 -99.06770 21843 ft 460 kts 271°
2026-05-07 18:59 19.90374 -99.10157 21277 ft 457 kts 271°
2026-05-07 19:00 19.90600 -99.13517 20708 ft 453 kts 271°
2026-05-07 19:00 19.90823 -99.16844 20157 ft 450 kts 271°
2026-05-07 19:00 19.91045 -99.20147 19650 ft 443 kts 271°
2026-05-07 19:00 19.91260 -99.23360 19364 ft 428 kts 271°
2026-05-07 19:01 19.91468 -99.26456 19115 ft 413 kts 271°
2026-05-07 19:01 19.91485 -99.29414 18850 ft 395 kts 260°
2026-05-07 19:01 19.90947 -99.32220 18609 ft 380 kts 253°
2026-05-07 19:01 19.90289 -99.34900 18375 ft 368 kts 252°
2026-05-07 19:02 19.89638 -99.37490 18175 ft 357 kts 252°
2026-05-07 19:02 19.89005 -99.40012 18016 ft 346 kts 252°
2026-05-07 19:02 19.88407 -99.42407 17836 ft 335 kts 252°
2026-05-07 19:02 19.87699 -99.44738 17669 ft 329 kts 243°
2026-05-07 19:03 19.86455 -99.46749 17655 ft 325 kts 227°
2026-05-07 19:03 19.84927 -99.48522 17661 ft 325 kts 224°
2026-05-07 19:03 19.83353 -99.50248 17658 ft 325 kts 224°
2026-05-07 19:03 19.81749 -99.51940 17658 ft 325 kts 219°
2026-05-07 19:04 19.79866 -99.53216 17655 ft 321 kts 201°
2026-05-07 19:04 19.77691 -99.53694 17664 ft 320 kts 180°
2026-05-07 19:04 19.75501 -99.53306 17478 ft 320 kts 160°
2026-05-07 19:04 19.73605 -99.52074 17134 ft 320 kts 138°
2026-05-07 19:05 19.72221 -99.50257 16839 ft 322 kts 125°
2026-05-07 19:05 19.71036 -99.48244 16527 ft 321 kts 123°
2026-05-07 19:05 19.69881 -99.46226 16208 ft 320 kts 123°
2026-05-07 19:05 19.68721 -99.44215 15929 ft 319 kts 123°
2026-05-07 19:06 19.67553 -99.42215 15630 ft 318 kts 123°
2026-05-07 19:06 19.65212 -99.38242 15032 ft 316 kts 123°
2026-05-07 19:06 19.64048 -99.36270 14748 ft 315 kts 123°
2026-05-07 19:07 19.62889 -99.34302 14486 ft 314 kts 123°
2026-05-07 19:07 19.61740 -99.32361 14214 ft 313 kts 123°
2026-05-07 19:07 19.60575 -99.30409 13948 ft 313 kts 124°
2026-05-07 19:07 19.59188 -99.28645 13745 ft 312 kts 137°
2026-05-07 19:08 19.57508 -99.27190 13322 ft 312 kts 143°
2026-05-07 19:08 19.55761 -99.25827 12946 ft 310 kts 143°
2026-05-07 19:08 19.53987 -99.24558 12603 ft 308 kts 151°
2026-05-07 19:08 19.51952 -99.23880 12382 ft 308 kts 173°
2026-05-07 19:09 19.49849 -99.24011 11994 ft 307 kts 188°
2026-05-07 19:09 19.47754 -99.24448 11644 ft 307 kts 191°
2026-05-07 19:09 19.45663 -99.24918 11330 ft 307 kts 191°
2026-05-07 19:09 19.43565 -99.25226 11024 ft 304 kts 179°
2026-05-07 19:10 19.41526 -99.24739 10785 ft 300 kts 155°
2026-05-07 19:10 19.39718 -99.23693 10729 ft 288 kts 148°
2026-05-07 19:10 19.38070 -99.22616 10656 ft 270 kts 146°
2026-05-07 19:10 19.36788 -99.21258 10410 ft 257 kts 119°
2026-05-07 19:11 19.36195 -99.19505 10129 ft 252 kts 104°
2026-05-07 19:11 19.35783 -99.17717 9782 ft 248 kts 93°
2026-05-07 19:11 19.36246 -99.15995 9562 ft 248 kts 57°
2026-05-07 19:11 19.37603 -99.14952 9272 ft 241 kts 17°
2026-05-07 19:12 19.39093 -99.14412 9144 ft 219 kts 42°
2026-05-07 19:12 19.40013 -99.13138 8463 ft 221 kts 54°
2026-05-07 19:12 19.40766 -99.11826 8591 ft 210 kts 52°
2026-05-07 19:12 19.41607 -99.10553 8040 ft 205 kts 55°
2026-05-07 19:13 19.42303 -99.09300 7625 ft 190 kts 59°
2026-05-07 19:13 19.42947 -99.08143 7352 ft 174 kts 59°
2026-05-07 19:13 19.43528 -99.07117 7308 ft 144 kts 60°
2026-05-07 19:13 19.43889 -99.06468 7309 ft 59 kts 59°
2026-05-07 19:14 19.44058 -99.06249 7308 ft 31 kts 32°
2026-05-07 19:14 19.44184 -99.06183 7309 ft 19 kts 15°
2026-05-07 19:14 19.44313 -99.06163 7309 ft 19 kts 358°
2026-05-07 19:14 19.44407 -99.06247 7309 ft 19 kts 296°
2026-05-07 19:15 19.44392 -99.06375 7309 ft 19 kts 243°
2026-05-07 19:15 19.44325 -99.06497 7309 ft 20 kts 239°
2026-05-07 19:15 19.44255 -99.06620 7309 ft 15 kts 238°
2026-05-07 19:15 19.44198 -99.06721 7309 ft 17 kts 239°
2026-05-07 19:16 19.44135 -99.06831 7309 ft 18 kts 238°
2026-05-07 19:16 19.44069 -99.06949 7309 ft 20 kts 240°
2026-05-07 19:16 19.43999 -99.07079 7309 ft 20 kts 238°
2026-05-07 19:16 19.43938 -99.07182 7309 ft 17 kts 239°
2026-05-07 19:17 19.43875 -99.07294 7309 ft 18 kts 239°
2026-05-07 19:17 19.43806 -99.07416 7309 ft 20 kts 239°
2026-05-07 19:17 19.43746 -99.07527 7309 ft 18 kts 239°
2026-05-07 19:17 19.43679 -99.07646 7309 ft 19 kts 238°
2026-05-07 19:18 19.43628 -99.07735 7309 ft 14 kts 241°
2026-05-07 19:18 19.43618 -99.07834 7309 ft 14 kts 287°
2026-05-07 19:18 19.43641 -99.07897 7309 ft 0 kts 292°
2026-05-07 19:19 19.43642 -99.07897 7309 ft 0 kts 292°